GFSSE_prec_precacc_306.txt.gz
Total_Precipitation_Accumulation
0.51 0.16 0.15 0.28 0.24 0.16 0.13 0.09 0.06 0.05 0.09 0.07 0.07 0.05 0.05 0.04 0.06 0.04 0.12 0.17 0.11 0.13 0.09 0.02 0.02 0.06 0.10 0.12 0.18 0.28 0.21 0.31 0.49 0.77 0.63 0.52 0.35 0.32 0.37 0.45 0.61 0.95 1.21
0.76 0.47 0.47 0.35 0.17 0.15 0.21 0.15 0.09 0.07 0.10 0.07 0.03 0.01 0.01 0.01 0.02 0.05 0.17 0.24 0.23 0.16 0.13 0.05 0.05 0.07 0.14 0.12 0.12 0.13 0.13 0.10 0.14 0.41 0.71 0.94 0.73 0.54 0.65 0.62 0.49 0.69 0.94
1.57 1.10 1.61 1.35 0.68 0.31 0.27 0.23 0.09 0.08 0.06 0.05 0.02 0.01 0.02 0.02 0.02 0.03 0.04 0.12 0.16 0.10 0.09 0.05 0.06 0.08 0.10 0.10 0.13 0.12 0.05 0.03 0.08 0.20 0.53 0.94 0.83 1.07 0.65 0.45 0.40 0.61 0.77
1.53 1.61 1.47 2.33 1.47 1.00 0.75 0.82 0.87 0.41 0.29 0.09 0.07 0.10 0.12 0.09 0.08 0.10 0.07 0.11 0.09 0.09 0.10 0.10 0.12 0.14 0.13 0.12 0.12 0.09 0.03 0.02 0.02 0.11 0.40 1.56 1.45 1.12 0.85 0.52 0.59 0.73 0.88
1.09 1.01 1.32 2.12 1.59 1.06 1.15 1.15 1.68 2.01 1.89 1.04 0.46 0.42 0.39 0.31 0.20 0.12 0.11 0.11 0.11 0.16 0.15 0.10 0.17 0.17 0.07 0.03 0.08 0.11 0.01 0.02 0.07 0.21 1.20 1.26 0.98 1.54 1.67 0.96 0.84 0.69 0.93
2.08 1.53 1.80 2.17 1.34 0.75 1.13 1.46 1.53 2.18 3.37 4.19 4.09 2.55 1.36 0.89 0.47 0.41 0.30 0.26 0.27 0.33 0.40 0.43 0.45 0.36 0.03 0.01 0.00 0.02 0.01 0.04 0.21 0.43 1.35 0.74 1.10 1.24 1.20 1.03 0.61 0.66 0.95
4.59 4.05 3.70 4.01 5.13 2.85 2.57 1.76 1.36 1.47 2.52 4.90 5.29 3.92 2.58 1.93 1.72 1.18 0.69 0.51 0.55 0.52 0.42 0.44 0.26 0.19 0.03 0.01 0.01 0.05 0.04 0.06 0.21 0.46 1.01 0.67 1.33 1.23 1.04 0.90 0.73 0.59 0.67
6.63 8.76 9.08 7.75 8.11 7.64 4.86 3.04 1.99 1.42 1.26 1.68 2.39 2.00 2.09 2.35 1.79 1.64 1.44 0.89 0.61 0.44 0.40 0.29 0.13 0.08 0.06 0.03 0.04 0.10 0.07 0.04 0.16 0.64 1.30 0.91 1.14 1.25 0.80 0.65 0.47 0.38 0.35
5.54 7.05 10.73 9.55 7.17 5.94 6.78 5.98 3.58 2.63 1.74 1.50 1.48 1.79 1.43 2.21 1.72 1.29 1.42 1.64 0.81 0.44 0.64 0.50 0.35 0.55 0.22 0.24 0.21 0.19 0.11 0.10 0.22 0.46 0.99 0.65 0.86 1.41 1.00 0.60 0.41 0.31 0.27
2.60 3.37 3.98 4.09 3.32 2.93 3.65 4.61 4.44 3.05 2.55 2.21 1.49 1.61 1.74 1.69 1.62 1.49 1.57 1.81 1.40 0.63 0.56 0.55 0.73 0.54 0.58 0.39 0.22 0.26 0.30 0.29 0.18 0.57 0.66 0.41 0.67 1.13 1.11 0.67 0.53 0.45 0.30
2.30 1.64 1.69 1.30 0.90 0.88 1.34 2.08 2.81 2.59 2.65 2.61 2.12 1.37 2.09 2.24 1.39 1.70 1.94 1.72 1.18 0.69 0.63 0.64 0.65 0.63 0.62 0.64 0.65 0.64 0.46 0.21 0.31 0.38 0.46 0.31 0.59 0.63 0.95 1.15 0.80 0.58 0.52
0.95 0.78 0.51 0.41 0.33 0.31 0.32 0.49 0.83 1.58 2.31 2.35 2.90 1.67 1.56 2.44 1.43 1.51 1.91 1.39 1.18 0.78 0.57 0.59 0.57 0.59 0.61 0.50 0.62 0.55 0.27 0.19 0.31 0.56 0.40 0.29 0.50 0.54 0.90 1.09 0.68 0.67 0.70
0.32 0.22 0.28 0.50 0.51 0.25 0.28 0.31 0.43 0.82 1.59 1.62 2.61 2.27 1.00 1.45 1.75 1.84 2.24 1.41 1.01 0.96 0.79 0.71 0.43 0.37 0.36 0.40 0.44 0.48 0.54 0.50 0.54 0.55 0.43 0.21 0.45 0.68 0.94 0.71 0.58 0.55 0.56
0.16 0.16 0.12 0.18 0.27 0.29 0.31 0.35 0.48 0.76 1.12 1.12 1.41 2.47 1.27 1.17 1.36 1.59 1.67 1.26 0.67 0.61 0.58 0.63 0.47 0.42 0.42 0.53 0.54 0.56 0.72 1.01 1.08 1.24 0.59 0.30 0.51 1.03 0.91 0.76 0.58 0.49 0.49
0.08 0.16 0.20 0.21 0.39 0.49 0.49 0.45 0.42 1.03 1.20 1.09 1.07 1.39 1.32 1.22 1.06 1.41 1.19 1.47 0.83 0.59 0.49 0.53 0.43 0.38 0.37 0.40 0.33 0.41 0.56 0.89 1.51 1.31 0.92 0.52 0.42 0.72 1.06 1.04 0.80 0.52 0.56
0.10 0.19 0.28 0.29 0.47 0.37 0.53 0.72 0.84 1.00 1.20 1.10 1.00 1.12 1.11 1.26 1.19 1.35 1.25 1.19 1.12 1.11 0.60 0.55 0.52 0.32 0.36 0.42 0.46 0.38 0.42 0.47 0.67 0.70 0.60 0.50 0.70 0.81 1.25 1.53 1.49 1.16 0.70
0.22 0.25 0.42 0.65 0.57 0.34 0.37 0.49 0.84 1.28 1.13 1.04 1.03 1.11 1.19 1.27 1.38 1.46 1.49 1.34 1.26 1.74 1.18 0.73 0.71 0.67 0.49 0.37 0.41 0.44 0.49 0.36 0.33 0.35 0.42 0.40 0.50 0.76 0.79 1.06 1.43 1.52 1.42
0.07 0.19 0.43 0.61 0.60 0.68 0.55 0.64 0.70 1.01 1.30 1.08 0.90 1.06 1.40 1.45 1.49 1.58 1.83 1.55 1.71 1.50 1.12 0.87 1.00 0.95 0.79 0.44 0.43 0.42 0.50 0.48 0.40 0.35 0.27 0.28 0.27 0.24 0.45 0.75 0.94 1.39 1.56
0.02 0.19 0.62 0.82 0.83 0.86 0.82 0.89 1.22 1.27 1.38 1.19 1.56 1.71 1.90 1.69 1.64 1.56 1.56 1.68 2.19 2.25 1.82 1.57 1.41 1.34 1.05 0.80 0.50 0.36 0.40 0.40 0.30 0.31 0.22 0.19 0.22 0.29 0.35 0.55 0.68 0.87 1.41
0.03 0.26 0.74 0.92 1.16 1.32 1.19 1.12 1.00 1.08 1.04 1.00 0.99 1.20 1.60 1.59 1.54 1.76 1.77 1.40 1.69 2.02 1.88 1.77 1.54 1.44 1.35 1.27 1.04 0.93 0.81 0.73 0.59 0.48 0.39 0.33 0.33 0.38 0.43 0.42 0.56 0.60 0.68
0.10 0.40 0.74 0.90 1.20 1.16 0.66 0.54 0.58 0.60 0.51 0.67 0.71 0.98 1.28 1.58 1.44 1.25 1.12 1.09 1.22 1.29 1.37 1.75 2.27 2.46 2.18 2.11 1.97 1.53 1.00 0.77 0.65 0.45 0.40 0.35 0.33 0.41 0.56 0.63 0.74 0.84 0.82
0.24 0.52 0.62 0.49 0.35 0.21 0.18 0.29 0.42 0.52 0.55 0.51 0.61 0.81 0.91 1.43 1.44 1.10 1.00 0.94 1.16 1.26 1.16 1.11 1.42 1.73 1.69 2.10 2.32 2.36 2.01 1.50 0.83 0.50 0.51 0.49 0.50 0.61 0.76 0.71 0.94 1.01 1.35
0.15 0.16 0.14 0.11 0.09 0.13 0.16 0.38 0.61 0.92 0.85 0.71 0.63 0.63 0.78 1.16 1.58 1.56 1.29 1.07 1.12 1.63 1.76 1.57 1.59 1.86 1.70 1.91 2.55 2.93 2.62 1.85 1.35 1.10 1.16 1.09 1.06 1.06 1.06 1.40 1.93 2.30 2.54
0.03 0.14 0.15 0.15 0.17 0.26 0.30 0.40 0.55 0.54 0.43 0.28 0.31 0.43 0.55 1.13 1.71 1.52 1.77 1.90 1.75 1.56 1.65 2.00 2.20 2.14 2.48 2.26 2.98 2.74 2.39 2.54 2.60 2.63 2.26 2.31 2.07 1.67 2.04 2.56 2.37 2.43 2.62
0.09 0.16 0.18 0.17 0.21 0.32 0.38 0.43 0.76 0.84 0.87 0.89 1.03 1.18 1.25 1.49 1.95 2.10 2.15 2.76 2.66 2.42 2.04 2.42 3.22 3.70 3.66 4.12 4.05 3.62 3.60 3.21 2.88 3.20 2.72 2.73 3.36 2.71 2.20 2.14 2.49 2.59 2.36
0.13 0.18 0.15 0.27 0.43 0.74 0.99 1.16 1.33 1.56 1.63 1.61 1.60 1.62 1.76 1.94 2.41 2.81 2.96 2.87 3.39 3.44 3.16 2.98 3.42 4.27 4.71 4.52 3.88 4.08 4.11 3.71 3.03 4.13 4.22 3.39 2.85 2.71 3.17 3.05 2.21 2.09 2.11

GFSSE_prec_precacc_312.txt.gz
Total_Precipitation_Accumulation
0.51 0.16 0.15 0.28 0.24 0.16 0.13 0.09 0.06 0.05 0.09 0.07 0.07 0.05 0.05 0.04 0.06 0.04 0.12 0.17 0.11 0.13 0.09 0.02 0.02 0.06 0.10 0.13 0.19 0.29 0.21 0.31 0.49 0.78 0.63 0.52 0.35 0.32 0.37 0.45 0.61 0.95 1.22
0.76 0.47 0.47 0.35 0.17 0.15 0.21 0.15 0.09 0.07 0.10 0.07 0.03 0.01 0.01 0.01 0.02 0.05 0.17 0.24 0.23 0.16 0.13 0.05 0.06 0.08 0.14 0.12 0.12 0.13 0.13 0.10 0.14 0.41 0.71 0.94 0.73 0.54 0.65 0.62 0.49 0.69 0.94
1.59 1.10 1.61 1.35 0.68 0.31 0.27 0.23 0.09 0.08 0.06 0.05 0.02 0.01 0.02 0.02 0.02 0.03 0.04 0.12 0.16 0.10 0.09 0.05 0.06 0.09 0.11 0.11 0.13 0.12 0.05 0.03 0.08 0.20 0.53 0.94 0.83 1.07 0.65 0.45 0.40 0.62 0.77
1.56 1.61 1.47 2.33 1.47 1.00 0.75 0.82 0.87 0.41 0.29 0.09 0.07 0.10 0.12 0.09 0.08 0.10 0.07 0.11 0.09 0.09 0.10 0.10 0.12 0.14 0.14 0.12 0.12 0.09 0.03 0.02 0.02 0.11 0.40 1.56 1.45 1.16 0.87 0.52 0.59 0.73 0.88
1.09 1.01 1.32 2.12 1.59 1.06 1.15 1.15 1.68 2.01 1.89 1.04 0.46 0.42 0.39 0.31 0.20 0.12 0.11 0.11 0.11 0.16 0.15 0.11 0.17 0.18 0.07 0.04 0.08 0.11 0.01 0.02 0.07 0.21 1.20 1.26 0.98 1.56 1.75 0.97 0.84 0.69 0.93
2.08 1.53 1.80 2.17 1.34 0.75 1.13 1.46 1.53 2.18 3.37 4.19 4.09 2.55 1.36 0.89 0.47 0.41 0.30 0.27 0.27 0.33 0.40 0.44 0.45 0.37 0.04 0.01 0.01 0.03 0.01 0.04 0.21 0.43 1.35 0.74 1.10 1.25 1.23 1.07 0.61 0.66 0.95
4.59 4.05 3.70 4.01 5.13 2.85 2.57 1.76 1.36 1.47 2.52 4.90 5.29 3.92 2.58 1.93 1.72 1.18 0.69 0.52 0.56 0.53 0.43 0.44 0.27 0.20 0.04 0.01 0.02 0.06 0.05 0.06 0.21 0.46 1.01 0.67 1.33 1.23 1.07 0.94 0.75 0.59 0.67
6.63 8.76 9.08 7.75 8.11 7.64 4.86 3.04 1.99 1.42 1.26 1.68 2.39 2.00 2.09 2.35 1.80 1.66 1.47 0.93 0.63 0.46 0.42 0.30 0.15 0.10 0.07 0.04 0.04 0.11 0.08 0.05 0.17 0.64 1.30 0.91 1.14 1.26 0.85 0.71 0.51 0.41 0.35
5.54 7.05 10.73 9.55 7.17 5.94 6.78 5.98 3.58 2.63 1.74 1.50 1.48 1.79 1.43 2.21 1.72 1.29 1.44 1.68 0.83 0.46 0.64 0.51 0.37 0.58 0.23 0.25 0.23 0.20 0.12 0.11 0.23 0.46 0.99 0.65 0.86 1.42 1.05 0.67 0.47 0.34 0.28
2.60 3.37 3.98 4.09 3.32 2.93 3.65 4.61 4.44 3.05 2.55 2.21 1.49 1.61 1.74 1.69 1.62 1.49 1.57 1.81 1.40 0.63 0.57 0.56 0.76 0.60 0.62 0.42 0.26 0.31 0.33 0.31 0.18 0.57 0.66 0.41 0.67 1.14 1.15 0.72 0.58 0.50 0.32
2.30 1.64 1.69 1.30 0.90 0.88 1.34 2.08 2.81 2.59 2.65 2.61 2.12 1.37 2.09 2.24 1.39 1.70 1.94 1.72 1.18 0.69 0.63 0.64 0.67 0.68 0.66 0.71 0.70 0.68 0.52 0.24 0.32 0.39 0.47 0.31 0.59 0.65 1.00 1.20 0.85 0.62 0.57
0.95 0.78 0.51 0.41 0.33 0.31 0.32 0.49 0.83 1.58 2.31 2.35 2.90 1.67 1.56 2.44 1.43 1.51 1.91 1.39 1.18 0.78 0.57 0.59 0.57 0.59 0.62 0.51 0.63 0.56 0.30 0.22 0.33 0.58 0.42 0.32 0.51 0.55 0.92 1.14 0.76 0.72 0.75
0.32 0.22 0.28 0.50 0.51 0.25 0.28 0.31 0.43 0.82 1.59 1.62 2.61 2.27 1.00 1.45 1.75 1.84 2.24 1.41 1.01 0.96 0.79 0.71 0.43 0.37 0.36 0.40 0.45 0.49 0.57 0.57 0.62 0.60 0.46 0.26 0.48 0.70 0.95 0.73 0.62 0.62 0.61
0.16 0.16 0.12 0.18 0.27 0.29 0.31 0.35 0.48 0.76 1.12 1.12 1.41 2.47 1.27 1.17 1.36 1.59 1.67 1.26 0.67 0.61 0.58 0.63 0.47 0.42 0.42 0.53 0.54 0.57 0.74 1.06 1.15 1.33 0.67 0.41 0.57 1.09 0.94 0.80 0.63 0.55 0.54
0.08 0.16 0.20 0.21 0.39 0.49 0.49 0.45 0.42 1.03 1.20 1.09 1.07 1.39 1.32 1.22 1.06 1.41 1.19 1.47 0.83 0.59 0.49 0.53 0.43 0.38 0.37 0.40 0.33 0.41 0.56 0.89 1.54 1.35 0.98 0.64 0.64 0.87 1.14 1.15 0.89 0.61 0.63
0.10 0.19 0.28 0.29 0.47 0.37 0.53 0.72 0.84 1.00 1.20 1.10 1.00 1.12 1.11 1.26 1.19 1.35 1.25 1.19 1.12 1.11 0.60 0.55 0.52 0.32 0.36 0.42 0.46 0.38 0.42 0.47 0.68 0.71 0.63 0.62 0.97 1.20 1.51 1.70 1.65 1.28 0.81
0.22 0.25 0.42 0.65 0.57 0.34 0.37 0.49 0.84 1.28 1.13 1.04 1.03 1.11 1.19 1.27 1.38 1.46 1.49 1.34 1.26 1.74 1.18 0.73 0.71 0.67 0.49 0.37 0.41 0.44 0.49 0.36 0.33 0.36 0.43 0.41 0.57 1.02 1.13 1.32 1.62 1.71 1.53
0.07 0.19 0.43 0.61 0.60 0.68 0.55 0.64 0.70 1.01 1.30 1.08 0.90 1.06 1.40 1.45 1.49 1.58 1.83 1.55 1.71 1.50 1.12 0.87 1.00 0.95 0.79 0.44 0.43 0.42 0.50 0.48 0.40 0.35 0.28 0.29 0.29 0.30 0.60 1.03 1.33 1.61 1.77
0.02 0.19 0.62 0.82 0.83 0.86 0.82 0.89 1.22 1.27 1.38 1.19 1.56 1.71 1.90 1.69 1.64 1.56 1.56 1.68 2.19 2.25 1.82 1.58 1.41 1.34 1.05 0.80 0.50 0.36 0.40 0.40 0.30 0.31 0.22 0.19 0.23 0.31 0.43 0.66 1.02 1.58 1.89
0.03 0.26 0.74 0.92 1.16 1.32 1.19 1.12 1.00 1.08 1.04 1.00 0.99 1.20 1.60 1.59 1.54 1.76 1.77 1.40 1.69 2.02 1.88 1.77 1.54 1.44 1.36 1.27 1.04 0.93 0.81 0.73 0.59 0.48 0.39 0.33 0.33 0.38 0.45 0.50 0.69 0.93 1.40
0.10 0.40 0.74 0.90 1.20 1.16 0.66 0.54 0.58 0.60 0.51 0.67 0.71 0.98 1.28 1.58 1.44 1.25 1.12 1.09 1.22 1.29 1.38 1.76 2.27 2.46 2.19 2.11 1.97 1.53 1.00 0.77 0.65 0.45 0.40 0.35 0.33 0.41 0.56 0.68 0.83 0.95 1.08
0.24 0.52 0.62 0.49 0.35 0.21 0.18 0.29 0.42 0.52 0.55 0.51 0.61 0.81 0.91 1.43 1.44 1.10 1.00 0.94 1.17 1.26 1.16 1.11 1.42 1.74 1.70 2.10 2.34 2.37 2.02 1.50 0.83 0.50 0.51 0.49 0.50 0.61 0.76 0.72 0.96 1.09 1.49
0.15 0.16 0.14 0.11 0.09 0.13 0.16 0.38 0.61 0.92 0.85 0.71 0.63 0.63 0.78 1.16 1.58 1.56 1.29 1.07 1.12 1.64 1.76 1.58 1.60 1.89 1.74 1.92 2.55 3.01 2.72 1.90 1.36 1.10 1.16 1.09 1.06 1.06 1.06 1.40 1.93 2.33 2.57
0.03 0.14 0.15 0.15 0.17 0.26 0.30 0.40 0.55 0.54 0.43 0.28 0.31 0.43 0.55 1.13 1.71 1.52 1.77 1.90 1.76 1.56 1.65 2.00 2.21 2.17 2.51 2.28 2.99 2.74 2.42 2.61 2.68 2.69 2.27 2.31 2.07 1.67 2.04 2.57 2.38 2.45 2.67
0.09 0.16 0.18 0.17 0.21 0.32 0.38 0.43 0.76 0.84 0.87 0.89 1.03 1.18 1.25 1.49 1.95 2.10 2.15 2.76 2.66 2.43 2.04 2.42 3.22 3.72 3.68 4.15 4.10 3.66 3.62 3.22 2.90 3.28 2.75 2.73 3.36 2.71 2.20 2.15 2.50 2.62 2.40
0.13 0.18 0.15 0.27 0.43 0.74 0.99 1.16 1.33 1.56 1.63 1.61 1.60 1.62 1.76 1.94 2.41 2.81 2.96 2.87 3.40 3.45 3.16 2.98 3.43 4.29 4.72 4.54 3.90 4.10 4.16 3.78 3.10 4.17 4.27 3.39 2.85 2.71 3.17 3.06 2.21 2.11 2.17

GFSSE_prec_precacc_318.txt.gz
Total_Precipitation_Accumulation
0.53 0.18 0.18 0.30 0.25 0.16 0.13 0.09 0.06 0.05 0.09 0.08 0.08 0.05 0.05 0.05 0.07 0.05 0.13 0.18 0.12 0.13 0.09 0.02 0.02 0.07 0.12 0.15 0.23 0.32 0.26 0.35 0.55 0.83 0.68 0.58 0.39 0.36 0.40 0.48 0.65 0.97 1.23
0.78 0.48 0.49 0.36 0.19 0.16 0.22 0.15 0.09 0.07 0.10 0.07 0.03 0.01 0.01 0.01 0.03 0.06 0.18 0.24 0.24 0.17 0.15 0.06 0.07 0.09 0.15 0.15 0.15 0.17 0.18 0.14 0.19 0.47 0.77 1.00 0.79 0.58 0.71 0.66 0.57 0.73 0.96
1.59 1.10 1.61 1.35 0.68 0.31 0.28 0.24 0.09 0.08 0.06 0.05 0.02 0.01 0.02 0.03 0.02 0.04 0.04 0.13 0.16 0.11 0.10 0.08 0.08 0.11 0.13 0.13 0.14 0.14 0.06 0.04 0.10 0.23 0.57 0.97 0.89 1.13 0.73 0.53 0.49 0.70 0.81
1.56 1.61 1.47 2.33 1.47 1.00 0.75 0.82 0.87 0.41 0.29 0.09 0.07 0.10 0.12 0.09 0.08 0.10 0.07 0.11 0.09 0.10 0.11 0.12 0.14 0.16 0.16 0.13 0.13 0.10 0.04 0.02 0.03 0.12 0.41 1.57 1.48 1.22 0.94 0.63 0.69 0.83 0.95
1.09 1.01 1.32 2.12 1.59 1.06 1.15 1.15 1.68 2.01 1.89 1.04 0.46 0.42 0.39 0.31 0.20 0.12 0.11 0.11 0.12 0.16 0.16 0.12 0.18 0.19 0.08 0.05 0.09 0.11 0.01 0.03 0.07 0.22 1.20 1.26 0.98 1.58 1.82 1.08 0.97 0.82 1.05
2.08 1.53 1.80 2.17 1.34 0.75 1.13 1.46 1.53 2.18 3.37 4.19 4.09 2.55 1.36 0.89 0.47 0.41 0.30 0.27 0.27 0.33 0.40 0.44 0.45 0.37 0.04 0.02 0.01 0.03 0.01 0.05 0.22 0.43 1.35 0.74 1.10 1.25 1.26 1.19 0.75 0.80 1.07
4.59 4.05 3.70 4.01 5.13 2.85 2.57 1.76 1.36 1.47 2.52 4.90 5.29 3.92 2.58 1.93 1.72 1.18 0.69 0.52 0.56 0.53 0.43 0.44 0.27 0.20 0.04 0.02 0.02 0.06 0.05 0.06 0.22 0.47 1.01 0.67 1.33 1.23 1.08 0.98 0.89 0.76 0.78
6.63 8.76 9.08 7.75 8.11 7.64 4.86 3.04 1.99 1.42 1.26 1.68 2.39 2.00 2.09 2.35 1.80 1.66 1.47 0.93 0.63 0.46 0.42 0.30 0.15 0.10 0.07 0.04 0.04 0.11 0.08 0.06 0.17 0.64 1.30 0.91 1.14 1.26 0.85 0.73 0.59 0.56 0.53
5.54 7.05 10.73 9.55 7.17 5.94 6.78 5.98 3.58 2.63 1.74 1.50 1.48 1.79 1.43 2.21 1.72 1.29 1.44 1.68 0.83 0.46 0.64 0.51 0.37 0.58 0.23 0.25 0.23 0.22 0.14 0.13 0.24 0.47 0.99 0.66 0.88 1.44 1.06 0.70 0.58 0.53 0.47
2.60 3.37 3.98 4.09 3.32 2.93 3.65 4.61 4.44 3.05 2.55 2.21 1.49 1.61 1.74 1.69 1.62 1.49 1.57 1.81 1.40 0.63 0.57 0.56 0.76 0.60 0.62 0.42 0.26 0.32 0.35 0.35 0.21 0.61 0.68 0.44 0.70 1.17 1.17 0.73 0.64 0.66 0.57
2.30 1.64 1.69 1.30 0.90 0.88 1.34 2.08 2.81 2.59 2.65 2.61 2.12 1.37 2.09 2.24 1.39 1.70 1.94 1.72 1.18 0.69 0.63 0.64 0.67 0.68 0.66 0.71 0.70 0.68 0.52 0.26 0.35 0.46 0.54 0.38 0.61 0.68 1.04 1.23 0.89 0.71 0.75
0.95 0.78 0.51 0.41 0.33 0.31 0.32 0.49 0.83 1.58 2.31 2.35 2.90 1.67 1.56 2.44 1.43 1.51 1.91 1.39 1.18 0.78 0.57 0.59 0.57 0.59 0.62 0.51 0.63 0.56 0.30 0.22 0.34 0.60 0.48 0.41 0.58 0.58 0.95 1.16 0.79 0.80 0.84
0.32 0.22 0.28 0.50 0.51 0.25 0.28 0.31 0.43 0.82 1.59 1.62 2.61 2.27 1.00 1.45 1.75 1.84 2.24 1.41 1.01 0.96 0.79 0.71 0.43 0.37 0.36 0.40 0.45 0.49 0.57 0.57 0.62 0.60 0.48 0.31 0.61 0.78 0.98 0.75 0.65 0.67 0.72
0.16 0.16 0.12 0.18 0.27 0.29 0.31 0.35 0.48 0.76 1.12 1.12 1.41 2.47 1.27 1.17 1.36 1.59 1.67 1.26 0.67 0.61 0.58 0.63 0.47 0.42 0.42 0.53 0.54 0.57 0.74 1.06 1.15 1.33 0.68 0.43 0.63 1.24 1.03 0.84 0.65 0.57 0.61
0.08 0.16 0.20 0.21 0.39 0.49 0.49 0.45 0.42 1.03 1.20 1.09 1.07 1.39 1.32 1.22 1.06 1.41 1.19 1.47 0.83 0.59 0.49 0.53 0.43 0.38 0.37 0.40 0.33 0.41 0.56 0.89 1.54 1.35 0.98 0.64 0.65 0.91 1.24 1.21 0.92 0.62 0.66
0.10 0.19 0.28 0.29 0.47 0.37 0.53 0.72 0.84 1.00 1.20 1.10 1.00 1.12 1.11 1.26 1.19 1.35 1.25 1.19 1.12 1.11 0.60 0.55 0.52 0.32 0.36 0.42 0.46 0.38 0.42 0.47 0.68 0.71 0.63 0.62 0.97 1.20 1.53 1.77 1.72 1.31 0.82
0.22 0.25 0.42 0.65 0.57 0.34 0.37 0.49 0.84 1.28 1.13 1.04 1.03 1.11 1.19 1.27 1.38 1.46 1.49 1.34 1.26 1.74 1.18 0.73 0.71 0.67 0.49 0.37 0.41 0.44 0.49 0.36 0.33 0.36 0.43 0.41 0.57 1.02 1.13 1.34 1.68 1.79 1.58
0.07 0.19 0.43 0.61 0.60 0.68 0.55 0.64 0.70 1.01 1.30 1.08 0.90 1.06 1.40 1.45 1.49 1.58 1.83 1.55 1.71 1.50 1.12 0.87 1.00 0.95 0.79 0.44 0.43 0.42 0.50 0.48 0.40 0.35 0.28 0.29 0.29 0.30 0.60 1.04 1.34 1.66 1.88
0.02 0.19 0.62 0.82 0.83 0.86 0.82 0.89 1.22 1.27 1.38 1.19 1.56 1.71 1.90 1.69 1.64 1.56 1.56 1.68 2.19 2.25 1.82 1.58 1.41 1.34 1.05 0.80 0.50 0.36 0.40 0.40 0.30 0.31 0.22 0.19 0.23 0.31 0.43 0.66 1.03 1.59 1.93
0.03 0.26 0.74 0.92 1.16 1.32 1.19 1.12 1.00 1.08 1.04 1.00 0.99 1.20 1.60 1.59 1.54 1.76 1.77 1.40 1.69 2.02 1.88 1.77 1.54 1.44 1.36 1.27 1.04 0.93 0.81 0.73 0.59 0.48 0.39 0.33 0.33 0.38 0.45 0.50 0.69 0.94 1.41
0.10 0.40 0.74 0.90 1.20 1.16 0.66 0.54 0.58 0.60 0.51 0.67 0.71 0.98 1.28 1.58 1.44 1.25 1.12 1.09 1.22 1.29 1.38 1.76 2.27 2.46 2.19 2.11 1.97 1.53 1.00 0.77 0.65 0.45 0.40 0.35 0.33 0.41 0.56 0.68 0.83 0.95 1.08
0.24 0.52 0.62 0.49 0.35 0.21 0.18 0.29 0.42 0.52 0.55 0.51 0.61 0.81 0.91 1.43 1.44 1.10 1.00 0.94 1.17 1.26 1.16 1.11 1.42 1.75 1.70 2.10 2.34 2.37 2.02 1.50 0.83 0.50 0.51 0.49 0.50 0.61 0.76 0.72 0.96 1.09 1.49
0.15 0.16 0.14 0.11 0.09 0.13 0.16 0.38 0.61 0.92 0.85 0.71 0.63 0.63 0.78 1.16 1.58 1.56 1.29 1.07 1.12 1.64 1.76 1.58 1.60 1.90 1.76 1.92 2.55 3.05 2.78 1.92 1.37 1.10 1.16 1.09 1.06 1.06 1.06 1.40 1.93 2.33 2.57
0.03 0.14 0.15 0.15 0.17 0.26 0.30 0.40 0.55 0.54 0.43 0.28 0.31 0.43 0.55 1.13 1.71 1.52 1.77 1.90 1.76 1.56 1.65 2.00 2.21 2.17 2.52 2.29 2.99 2.75 2.45 2.66 2.72 2.73 2.27 2.31 2.07 1.67 2.04 2.57 2.38 2.45 2.68
0.09 0.16 0.18 0.17 0.21 0.32 0.38 0.43 0.76 0.84 0.87 0.89 1.03 1.18 1.25 1.49 1.95 2.10 2.15 2.76 2.66 2.43 2.04 2.42 3.22 3.73 3.68 4.17 4.12 3.68 3.63 3.22 2.91 3.32 2.78 2.73 3.36 2.71 2.20 2.15 2.50 2.62 2.41
0.13 0.18 0.15 0.27 0.43 0.74 0.99 1.16 1.33 1.56 1.63 1.61 1.60 1.62 1.76 1.94 2.41 2.81 2.96 2.87 3.40 3.45 3.16 2.98 3.43 4.30 4.72 4.55 3.91 4.12 4.22 3.83 3.14 4.20 4.30 3.40 2.85 2.71 3.17 3.07 2.22 2.12 2.17

GFSSE_prec_precacc_324.txt.gz
Total_Precipitation_Accumulation
0.55 0.19 0.20 0.31 0.25 0.16 0.13 0.09 0.06 0.05 0.09 0.08 0.08 0.05 0.05 0.05 0.07 0.05 0.13 0.18 0.13 0.15 0.11 0.04 0.04 0.08 0.13 0.17 0.24 0.32 0.27 0.35 0.55 0.83 0.68 0.58 0.39 0.37 0.42 0.51 0.71 1.03 1.30
0.78 0.48 0.49 0.36 0.19 0.16 0.22 0.15 0.09 0.07 0.10 0.07 0.03 0.01 0.01 0.01 0.03 0.06 0.19 0.25 0.24 0.18 0.16 0.08 0.08 0.10 0.16 0.16 0.16 0.18 0.18 0.15 0.19 0.47 0.77 1.00 0.79 0.58 0.72 0.69 0.62 0.81 1.04
1.59 1.10 1.61 1.35 0.68 0.31 0.28 0.24 0.09 0.08 0.06 0.05 0.02 0.01 0.02 0.03 0.02 0.04 0.04 0.13 0.16 0.12 0.11 0.08 0.09 0.12 0.13 0.13 0.15 0.14 0.07 0.05 0.11 0.24 0.57 0.97 0.89 1.13 0.73 0.54 0.52 0.76 0.90
1.56 1.61 1.47 2.33 1.47 1.00 0.75 0.82 0.87 0.41 0.29 0.09 0.07 0.10 0.12 0.09 0.08 0.10 0.07 0.11 0.09 0.10 0.11 0.12 0.14 0.16 0.16 0.13 0.13 0.10 0.04 0.03 0.03 0.12 0.42 1.57 1.48 1.22 0.94 0.64 0.71 0.86 1.02
1.09 1.01 1.32 2.12 1.59 1.06 1.15 1.15 1.68 2.01 1.89 1.04 0.46 0.42 0.39 0.31 0.20 0.12 0.11 0.11 0.12 0.16 0.16 0.12 0.18 0.19 0.08 0.05 0.09 0.11 0.01 0.03 0.07 0.22 1.21 1.27 0.98 1.58 1.82 1.11 0.99 0.85 1.10
2.08 1.53 1.80 2.17 1.34 0.75 1.13 1.46 1.53 2.18 3.37 4.19 4.09 2.55 1.36 0.89 0.47 0.41 0.30 0.27 0.27 0.33 0.40 0.44 0.45 0.37 0.04 0.02 0.01 0.03 0.01 0.05 0.22 0.43 1.35 0.75 1.12 1.27 1.26 1.21 0.79 0.85 1.11
4.59 4.05 3.70 4.01 5.13 2.85 2.57 1.76 1.36 1.47 2.52 4.90 5.29 3.92 2.58 1.93 1.72 1.18 0.69 0.52 0.56 0.53 0.43 0.44 0.27 0.20 0.04 0.02 0.02 0.06 0.05 0.06 0.22 0.47 1.01 0.68 1.35 1.25 1.09 0.99 0.91 0.81 0.84
6.63 8.76 9.08 7.75 8.11 7.64 4.86 3.04 1.99 1.42 1.26 1.68 2.39 2.00 2.09 2.35 1.80 1.66 1.47 0.93 0.63 0.46 0.42 0.30 0.15 0.10 0.07 0.04 0.04 0.11 0.08 0.06 0.18 0.64 1.31 0.91 1.16 1.28 0.87 0.76 0.62 0.60 0.57
5.54 7.05 10.73 9.55 7.17 5.94 6.78 5.98 3.58 2.63 1.74 1.50 1.48 1.79 1.43 2.21 1.72 1.29 1.44 1.68 0.83 0.46 0.64 0.51 0.37 0.58 0.23 0.25 0.23 0.22 0.14 0.13 0.25 0.48 1.04 0.67 0.90 1.46 1.10 0.74 0.62 0.57 0.54
2.60 3.37 3.98 4.09 3.32 2.93 3.65 4.61 4.44 3.05 2.55 2.21 1.49 1.61 1.74 1.69 1.62 1.49 1.57 1.81 1.40 0.63 0.57 0.56 0.76 0.60 0.62 0.42 0.26 0.32 0.35 0.35 0.21 0.61 0.70 0.47 0.74 1.20 1.21 0.77 0.66 0.68 0.60
2.30 1.64 1.69 1.30 0.90 0.88 1.34 2.08 2.81 2.59 2.65 2.61 2.12 1.37 2.09 2.24 1.39 1.70 1.94 1.72 1.18 0.69 0.63 0.64 0.67 0.68 0.66 0.71 0.70 0.68 0.52 0.26 0.35 0.46 0.54 0.40 0.64 0.70 1.06 1.26 0.91 0.72 0.76
0.95 0.78 0.51 0.41 0.33 0.31 0.32 0.49 0.83 1.58 2.31 2.35 2.90 1.67 1.56 2.44 1.43 1.51 1.91 1.39 1.18 0.78 0.57 0.59 0.57 0.59 0.62 0.51 0.63 0.56 0.30 0.22 0.34 0.60 0.48 0.41 0.59 0.61 0.97 1.17 0.82 0.81 0.85
0.32 0.22 0.28 0.50 0.51 0.25 0.28 0.31 0.43 0.82 1.59 1.62 2.61 2.27 1.00 1.45 1.75 1.84 2.24 1.41 1.01 0.96 0.79 0.71 0.43 0.37 0.36 0.40 0.45 0.49 0.57 0.57 0.62 0.60 0.48 0.31 0.61 0.78 0.99 0.76 0.66 0.69 0.72
0.16 0.16 0.12 0.18 0.27 0.29 0.31 0.35 0.48 0.76 1.12 1.12 1.41 2.47 1.27 1.17 1.36 1.59 1.67 1.26 0.67 0.61 0.58 0.63 0.47 0.42 0.42 0.53 0.54 0.57 0.74 1.06 1.15 1.33 0.68 0.43 0.63 1.24 1.03 0.84 0.66 0.58 0.62
0.08 0.16 0.20 0.21 0.39 0.49 0.49 0.45 0.42 1.03 1.20 1.09 1.07 1.39 1.32 1.22 1.06 1.41 1.19 1.47 0.83 0.59 0.49 0.53 0.43 0.38 0.37 0.40 0.33 0.41 0.56 0.89 1.54 1.35 0.98 0.64 0.65 0.91 1.24 1.22 0.93 0.64 0.66
0.10 0.19 0.28 0.29 0.47 0.37 0.53 0.72 0.84 1.00 1.20 1.10 1.00 1.12 1.11 1.26 1.19 1.35 1.25 1.19 1.12 1.11 0.60 0.55 0.52 0.32 0.36 0.42 0.46 0.38 0.42 0.47 0.68 0.71 0.63 0.62 0.97 1.20 1.53 1.77 1.72 1.32 0.84
0.22 0.25 0.42 0.65 0.57 0.34 0.37 0.49 0.84 1.28 1.13 1.04 1.03 1.11 1.19 1.27 1.38 1.46 1.49 1.34 1.26 1.74 1.18 0.73 0.71 0.67 0.49 0.37 0.41 0.44 0.49 0.36 0.33 0.36 0.43 0.41 0.57 1.02 1.13 1.34 1.68 1.79 1.59
0.07 0.19 0.43 0.61 0.60 0.68 0.55 0.64 0.70 1.01 1.30 1.08 0.90 1.06 1.40 1.45 1.49 1.58 1.83 1.55 1.71 1.50 1.12 0.87 1.00 0.95 0.79 0.44 0.43 0.42 0.50 0.48 0.40 0.35 0.28 0.29 0.29 0.30 0.60 1.04 1.34 1.66 1.88
0.02 0.19 0.62 0.82 0.83 0.86 0.82 0.89 1.22 1.27 1.38 1.19 1.56 1.71 1.90 1.69 1.64 1.56 1.56 1.68 2.19 2.25 1.82 1.58 1.41 1.34 1.05 0.80 0.50 0.36 0.40 0.40 0.30 0.31 0.22 0.19 0.23 0.31 0.43 0.66 1.03 1.59 1.93
0.03 0.26 0.74 0.92 1.16 1.32 1.19 1.12 1.00 1.08 1.04 1.00 0.99 1.20 1.60 1.59 1.54 1.76 1.77 1.40 1.69 2.02 1.88 1.77 1.54 1.44 1.36 1.27 1.04 0.93 0.81 0.73 0.59 0.48 0.39 0.33 0.33 0.38 0.45 0.50 0.69 0.94 1.41
0.10 0.40 0.74 0.90 1.20 1.16 0.66 0.54 0.58 0.60 0.51 0.67 0.71 0.98 1.28 1.58 1.44 1.25 1.12 1.09 1.22 1.29 1.38 1.76 2.27 2.46 2.19 2.11 1.97 1.53 1.00 0.77 0.65 0.45 0.40 0.35 0.33 0.41 0.56 0.68 0.83 0.95 1.08
0.24 0.52 0.62 0.49 0.35 0.21 0.18 0.29 0.42 0.52 0.55 0.51 0.61 0.81 0.91 1.43 1.44 1.10 1.00 0.94 1.17 1.26 1.16 1.11 1.42 1.75 1.70 2.11 2.35 2.37 2.02 1.50 0.83 0.50 0.51 0.49 0.50 0.61 0.76 0.72 0.96 1.09 1.49
0.15 0.16 0.14 0.11 0.09 0.13 0.16 0.38 0.61 0.92 0.85 0.71 0.63 0.63 0.78 1.16 1.58 1.56 1.29 1.07 1.12 1.64 1.76 1.58 1.60 1.90 1.77 1.92 2.56 3.07 2.80 1.93 1.37 1.10 1.16 1.09 1.06 1.06 1.06 1.40 1.93 2.33 2.57
0.03 0.14 0.15 0.15 0.17 0.26 0.30 0.40 0.55 0.54 0.43 0.28 0.31 0.43 0.55 1.13 1.71 1.52 1.77 1.90 1.76 1.56 1.65 2.00 2.21 2.17 2.53 2.30 3.00 2.75 2.46 2.68 2.75 2.74 2.27 2.31 2.07 1.67 2.04 2.57 2.38 2.45 2.68
0.09 0.16 0.18 0.17 0.21 0.32 0.38 0.43 0.76 0.84 0.87 0.89 1.03 1.18 1.25 1.49 1.95 2.10 2.15 2.76 2.66 2.43 2.04 2.42 3.23 3.73 3.69 4.19 4.13 3.69 3.64 3.23 2.91 3.35 2.79 2.73 3.36 2.71 2.20 2.15 2.50 2.63 2.42
0.13 0.18 0.15 0.27 0.43 0.74 0.99 1.16 1.33 1.56 1.63 1.61 1.60 1.62 1.76 1.94 2.41 2.81 2.96 2.87 3.40 3.45 3.16 2.98 3.43 4.30 4.72 4.56 3.91 4.12 4.22 3.85 3.15 4.23 4.32 3.40 2.85 2.71 3.17 3.07 2.22 2.13 2.18

GFSSE_prec_precacc_327.txt.gz
Total_Precipitation_Accumulation
0.55 0.19 0.20 0.31 0.25 0.16 0.13 0.09 0.06 0.05 0.09 0.08 0.08 0.05 0.05 0.05 0.07 0.05 0.13 0.18 0.13 0.15 0.11 0.05 0.04 0.08 0.13 0.17 0.24 0.32 0.27 0.36 0.55 0.83 0.68 0.58 0.39 0.37 0.42 0.51 0.71 1.03 1.35
0.78 0.48 0.49 0.36 0.19 0.16 0.22 0.15 0.09 0.07 0.10 0.07 0.03 0.01 0.01 0.01 0.03 0.06 0.19 0.25 0.24 0.18 0.16 0.08 0.08 0.10 0.16 0.16 0.16 0.18 0.18 0.15 0.19 0.47 0.77 1.00 0.79 0.58 0.72 0.69 0.62 0.83 1.09
1.59 1.10 1.61 1.35 0.68 0.31 0.28 0.24 0.09 0.08 0.06 0.05 0.02 0.01 0.02 0.03 0.02 0.04 0.04 0.13 0.16 0.12 0.11 0.08 0.09 0.12 0.13 0.13 0.15 0.14 0.07 0.05 0.11 0.24 0.57 0.97 0.89 1.15 0.73 0.54 0.52 0.76 0.91
1.56 1.61 1.47 2.33 1.47 1.00 0.75 0.82 0.87 0.41 0.29 0.09 0.07 0.10 0.12 0.09 0.08 0.10 0.07 0.11 0.09 0.10 0.11 0.12 0.14 0.16 0.16 0.13 0.13 0.10 0.04 0.03 0.03 0.12 0.42 1.57 1.48 1.23 0.94 0.64 0.71 0.86 1.02
1.09 1.01 1.32 2.12 1.59 1.06 1.15 1.15 1.68 2.01 1.89 1.04 0.46 0.42 0.39 0.31 0.20 0.12 0.11 0.11 0.12 0.16 0.16 0.12 0.18 0.19 0.08 0.05 0.09 0.11 0.01 0.03 0.07 0.22 1.21 1.27 0.98 1.63 1.84 1.11 1.00 0.85 1.11
2.08 1.53 1.80 2.17 1.34 0.75 1.13 1.46 1.53 2.18 3.37 4.19 4.09 2.55 1.36 0.89 0.47 0.41 0.30 0.27 0.27 0.33 0.40 0.44 0.45 0.37 0.04 0.02 0.01 0.03 0.01 0.05 0.22 0.43 1.35 0.76 1.13 1.30 1.29 1.22 0.79 0.85 1.12
4.59 4.05 3.70 4.01 5.13 2.85 2.57 1.76 1.36 1.47 2.52 4.90 5.29 3.92 2.58 1.93 1.72 1.18 0.69 0.52 0.56 0.53 0.43 0.44 0.27 0.20 0.04 0.02 0.02 0.06 0.05 0.06 0.22 0.47 1.01 0.68 1.35 1.26 1.10 1.00 0.93 0.82 0.85
6.63 8.76 9.08 7.75 8.11 7.64 4.86 3.04 1.99 1.42 1.26 1.68 2.39 2.00 2.09 2.35 1.80 1.66 1.47 0.93 0.63 0.46 0.42 0.30 0.15 0.10 0.07 0.04 0.04 0.11 0.08 0.06 0.18 0.64 1.31 0.91 1.16 1.28 0.88 0.76 0.62 0.62 0.59
5.54 7.05 10.73 9.55 7.17 5.94 6.78 5.98 3.58 2.63 1.74 1.50 1.48 1.79 1.43 2.21 1.72 1.29 1.44 1.68 0.83 0.46 0.64 0.51 0.37 0.58 0.23 0.25 0.23 0.22 0.14 0.13 0.25 0.48 1.04 0.67 0.90 1.46 1.14 0.77 0.62 0.57 0.54
2.60 3.37 3.98 4.09 3.32 2.93 3.65 4.61 4.44 3.05 2.55 2.21 1.49 1.61 1.74 1.69 1.62 1.49 1.57 1.81 1.40 0.63 0.57 0.56 0.76 0.60 0.62 0.42 0.26 0.32 0.35 0.35 0.21 0.61 0.70 0.47 0.74 1.20 1.24 0.84 0.73 0.69 0.60
2.30 1.64 1.69 1.30 0.90 0.88 1.34 2.08 2.81 2.59 2.65 2.61 2.12 1.37 2.09 2.24 1.39 1.70 1.94 1.72 1.18 0.69 0.63 0.64 0.67 0.68 0.66 0.71 0.70 0.68 0.52 0.26 0.35 0.46 0.54 0.40 0.64 0.70 1.06 1.31 1.01 0.77 0.77
0.95 0.78 0.51 0.41 0.33 0.31 0.32 0.49 0.83 1.58 2.31 2.35 2.90 1.67 1.56 2.44 1.43 1.51 1.91 1.39 1.18 0.78 0.57 0.59 0.57 0.59 0.62 0.51 0.63 0.56 0.30 0.22 0.34 0.60 0.48 0.41 0.59 0.61 0.97 1.17 0.90 0.95 0.90
0.32 0.22 0.28 0.50 0.51 0.25 0.28 0.31 0.43 0.82 1.59 1.62 2.61 2.27 1.00 1.45 1.75 1.84 2.24 1.41 1.01 0.96 0.79 0.71 0.43 0.37 0.36 0.40 0.45 0.49 0.57 0.57 0.62 0.60 0.48 0.31 0.61 0.78 0.99 0.76 0.66 0.80 0.86
0.16 0.16 0.12 0.18 0.27 0.29 0.31 0.35 0.48 0.76 1.12 1.12 1.41 2.47 1.27 1.17 1.36 1.59 1.67 1.26 0.67 0.61 0.58 0.63 0.47 0.42 0.42 0.53 0.54 0.57 0.74 1.06 1.15 1.33 0.68 0.43 0.63 1.24 1.03 0.84 0.66 0.58 0.73
0.08 0.16 0.20 0.21 0.39 0.49 0.49 0.45 0.42 1.03 1.20 1.09 1.07 1.39 1.32 1.22 1.06 1.41 1.19 1.47 0.83 0.59 0.49 0.53 0.43 0.38 0.37 0.40 0.33 0.41 0.56 0.89 1.54 1.35 0.98 0.64 0.65 0.91 1.24 1.22 0.93 0.64 0.67
0.10 0.19 0.28 0.29 0.47 0.37 0.53 0.72 0.84 1.00 1.20 1.10 1.00 1.12 1.11 1.26 1.19 1.35 1.25 1.19 1.12 1.11 0.60 0.55 0.52 0.32 0.36 0.42 0.46 0.38 0.42 0.47 0.68 0.71 0.63 0.62 0.97 1.20 1.53 1.77 1.72 1.32 0.84
0.22 0.25 0.42 0.65 0.57 0.34 0.37 0.49 0.84 1.28 1.13 1.04 1.03 1.11 1.19 1.27 1.38 1.46 1.49 1.34 1.26 1.74 1.18 0.73 0.71 0.67 0.49 0.37 0.41 0.44 0.49 0.36 0.33 0.36 0.43 0.41 0.57 1.02 1.13 1.34 1.68 1.79 1.59
0.07 0.19 0.43 0.61 0.60 0.68 0.55 0.64 0.70 1.01 1.30 1.08 0.90 1.06 1.40 1.45 1.49 1.58 1.83 1.55 1.71 1.50 1.12 0.87 1.00 0.95 0.79 0.44 0.43 0.42 0.50 0.48 0.40 0.35 0.28 0.29 0.29 0.30 0.60 1.04 1.34 1.66 1.88
0.02 0.19 0.62 0.82 0.83 0.86 0.82 0.89 1.22 1.27 1.38 1.19 1.56 1.71 1.90 1.69 1.64 1.56 1.56 1.68 2.19 2.25 1.82 1.58 1.41 1.34 1.05 0.80 0.50 0.36 0.40 0.40 0.30 0.31 0.22 0.19 0.23 0.31 0.43 0.66 1.03 1.59 1.93
0.03 0.26 0.74 0.92 1.16 1.32 1.19 1.12 1.00 1.08 1.04 1.00 0.99 1.20 1.60 1.59 1.54 1.76 1.77 1.40 1.69 2.02 1.88 1.77 1.54 1.44 1.36 1.27 1.04 0.93 0.81 0.73 0.59 0.48 0.39 0.33 0.33 0.38 0.45 0.50 0.69 0.94 1.41
0.10 0.40 0.74 0.90 1.20 1.16 0.66 0.54 0.58 0.60 0.51 0.67 0.71 0.98 1.28 1.58 1.44 1.25 1.12 1.09 1.22 1.29 1.38 1.76 2.27 2.46 2.19 2.11 1.97 1.53 1.00 0.77 0.65 0.45 0.40 0.35 0.33 0.41 0.56 0.68 0.83 0.95 1.08
0.24 0.52 0.62 0.49 0.35 0.21 0.18 0.29 0.42 0.52 0.55 0.51 0.61 0.81 0.91 1.43 1.44 1.10 1.00 0.94 1.17 1.26 1.16 1.11 1.42 1.75 1.70 2.11 2.35 2.37 2.02 1.50 0.83 0.50 0.51 0.49 0.50 0.61 0.76 0.72 0.96 1.09 1.49
0.15 0.16 0.14 0.11 0.09 0.13 0.16 0.38 0.61 0.92 0.85 0.71 0.63 0.63 0.78 1.16 1.58 1.56 1.29 1.07 1.12 1.64 1.76 1.58 1.60 1.90 1.77 1.92 2.56 3.07 2.80 1.93 1.37 1.10 1.16 1.09 1.06 1.06 1.06 1.40 1.93 2.33 2.57
0.03 0.14 0.15 0.15 0.17 0.26 0.30 0.40 0.55 0.54 0.43 0.28 0.31 0.43 0.55 1.13 1.71 1.52 1.77 1.90 1.76 1.56 1.65 2.00 2.21 2.17 2.53 2.30 3.00 2.75 2.47 2.69 2.75 2.74 2.27 2.31 2.07 1.67 2.04 2.57 2.38 2.45 2.68
0.09 0.16 0.18 0.17 0.21 0.32 0.38 0.43 0.76 0.84 0.87 0.89 1.03 1.18 1.25 1.49 1.95 2.10 2.15 2.76 2.66 2.43 2.04 2.42 3.23 3.73 3.69 4.19 4.13 3.69 3.64 3.23 2.92 3.35 2.79 2.73 3.36 2.71 2.20 2.15 2.50 2.63 2.42
0.13 0.18 0.15 0.27 0.43 0.74 0.99 1.16 1.33 1.56 1.63 1.61 1.60 1.62 1.76 1.94 2.41 2.81 2.96 2.87 3.40 3.45 3.16 2.98 3.43 4.30 4.72 4.56 3.92 4.13 4.24 3.86 3.16 4.24 4.33 3.40 2.85 2.71 3.17 3.07 2.22 2.13 2.19

GFSSE_prec_precacc_330.txt.gz
Total_Precipitation_Accumulation
0.55 0.19 0.20 0.32 0.26 0.16 0.13 0.09 0.06 0.05 0.09 0.08 0.08 0.05 0.05 0.05 0.07 0.05 0.13 0.18 0.13 0.15 0.11 0.05 0.05 0.09 0.14 0.18 0.24 0.33 0.27 0.36 0.55 0.83 0.68 0.58 0.39 0.37 0.42 0.51 0.71 1.03 1.37
0.78 0.48 0.49 0.37 0.19 0.16 0.22 0.15 0.09 0.07 0.10 0.07 0.03 0.01 0.01 0.01 0.03 0.06 0.19 0.25 0.24 0.18 0.16 0.08 0.08 0.10 0.16 0.16 0.16 0.18 0.19 0.15 0.19 0.47 0.77 1.00 0.79 0.58 0.72 0.69 0.62 0.83 1.11
1.59 1.10 1.61 1.35 0.68 0.31 0.28 0.24 0.09 0.08 0.06 0.05 0.02 0.01 0.02 0.03 0.02 0.04 0.04 0.13 0.16 0.12 0.11 0.08 0.09 0.12 0.13 0.13 0.15 0.14 0.07 0.05 0.11 0.24 0.57 0.97 0.89 1.15 0.74 0.56 0.53 0.76 0.92
1.56 1.61 1.47 2.34 1.47 1.00 0.75 0.82 0.87 0.41 0.29 0.09 0.07 0.10 0.12 0.09 0.08 0.10 0.07 0.11 0.09 0.10 0.11 0.12 0.14 0.16 0.16 0.13 0.13 0.10 0.04 0.03 0.03 0.12 0.42 1.57 1.48 1.32 1.08 0.73 0.77 0.87 1.02
1.09 1.01 1.32 2.12 1.59 1.06 1.15 1.15 1.68 2.01 1.89 1.04 0.46 0.42 0.39 0.31 0.20 0.12 0.11 0.11 0.12 0.16 0.16 0.12 0.18 0.19 0.08 0.05 0.09 0.11 0.01 0.03 0.07 0.22 1.21 1.27 0.99 1.71 1.94 1.16 1.02 0.88 1.12
2.08 1.53 1.80 2.17 1.34 0.75 1.13 1.46 1.53 2.18 3.37 4.19 4.09 2.55 1.36 0.89 0.47 0.41 0.30 0.27 0.27 0.33 0.40 0.44 0.45 0.37 0.04 0.02 0.01 0.03 0.01 0.05 0.22 0.43 1.35 0.76 1.14 1.31 1.31 1.22 0.80 0.85 1.12
4.59 4.05 3.70 4.01 5.13 2.85 2.57 1.76 1.36 1.47 2.52 4.90 5.29 3.92 2.58 1.93 1.72 1.18 0.69 0.52 0.56 0.53 0.43 0.44 0.27 0.20 0.04 0.02 0.02 0.06 0.05 0.06 0.22 0.47 1.01 0.68 1.35 1.26 1.10 1.01 0.93 0.82 0.85
6.63 8.76 9.08 7.75 8.11 7.64 4.86 3.04 1.99 1.42 1.26 1.68 2.39 2.00 2.09 2.35 1.80 1.66 1.47 0.93 0.63 0.46 0.42 0.30 0.15 0.10 0.07 0.04 0.04 0.11 0.08 0.06 0.18 0.64 1.31 0.91 1.16 1.28 0.89 0.78 0.63 0.62 0.59
5.54 7.05 10.73 9.55 7.17 5.94 6.78 5.98 3.58 2.63 1.74 1.50 1.48 1.79 1.43 2.21 1.72 1.29 1.44 1.68 0.83 0.46 0.64 0.51 0.37 0.58 0.23 0.25 0.23 0.22 0.14 0.13 0.25 0.48 1.04 0.67 0.90 1.46 1.15 0.80 0.65 0.58 0.55
2.60 3.37 3.98 4.09 3.32 2.93 3.65 4.61 4.44 3.05 2.55 2.21 1.49 1.61 1.74 1.69 1.62 1.49 1.57 1.81 1.40 0.63 0.57 0.56 0.76 0.60 0.62 0.42 0.26 0.32 0.35 0.35 0.21 0.61 0.70 0.47 0.74 1.20 1.24 0.87 0.78 0.72 0.62
2.30 1.64 1.69 1.30 0.90 0.88 1.34 2.08 2.81 2.59 2.65 2.61 2.12 1.37 2.09 2.24 1.39 1.70 1.94 1.72 1.18 0.69 0.63 0.64 0.67 0.68 0.66 0.71 0.70 0.68 0.52 0.26 0.35 0.46 0.54 0.40 0.64 0.70 1.06 1.32 1.06 0.85 0.83
0.95 0.78 0.51 0.41 0.33 0.31 0.32 0.49 0.83 1.58 2.31 2.35 2.90 1.67 1.56 2.44 1.43 1.51 1.91 1.39 1.18 0.78 0.57 0.59 0.57 0.59 0.62 0.51 0.63 0.56 0.30 0.22 0.34 0.60 0.48 0.41 0.59 0.61 0.97 1.17 0.90 1.03 1.00
0.32 0.22 0.28 0.50 0.51 0.25 0.28 0.31 0.43 0.82 1.59 1.62 2.61 2.27 1.00 1.45 1.75 1.84 2.24 1.41 1.01 0.96 0.79 0.71 0.43 0.37 0.36 0.40 0.45 0.49 0.57 0.57 0.62 0.60 0.48 0.31 0.61 0.78 0.99 0.76 0.66 0.81 0.97
0.16 0.16 0.12 0.18 0.27 0.29 0.31 0.35 0.48 0.76 1.12 1.12 1.41 2.47 1.27 1.17 1.36 1.59 1.67 1.26 0.67 0.61 0.58 0.63 0.47 0.42 0.42 0.53 0.54 0.57 0.74 1.06 1.15 1.33 0.68 0.43 0.63 1.24 1.03 0.84 0.66 0.59 0.76
0.08 0.16 0.20 0.21 0.39 0.49 0.49 0.45 0.42 1.03 1.20 1.09 1.07 1.39 1.32 1.22 1.06 1.41 1.19 1.47 0.83 0.59 0.49 0.53 0.43 0.38 0.37 0.40 0.33 0.41 0.56 0.89 1.54 1.35 0.98 0.64 0.65 0.91 1.24 1.22 0.93 0.64 0.67
0.10 0.19 0.28 0.29 0.47 0.37 0.53 0.72 0.84 1.00 1.20 1.10 1.00 1.12 1.11 1.26 1.19 1.35 1.25 1.19 1.12 1.11 0.60 0.55 0.52 0.32 0.36 0.42 0.46 0.38 0.42 0.47 0.68 0.71 0.63 0.62 0.97 1.20 1.53 1.77 1.72 1.32 0.84
0.22 0.25 0.42 0.65 0.57 0.34 0.37 0.49 0.84 1.28 1.13 1.04 1.03 1.11 1.19 1.27 1.38 1.46 1.49 1.34 1.26 1.74 1.18 0.73 0.71 0.67 0.49 0.37 0.41 0.44 0.49 0.36 0.33 0.36 0.43 0.41 0.57 1.02 1.13 1.34 1.68 1.79 1.59
0.07 0.19 0.43 0.61 0.60 0.68 0.55 0.64 0.70 1.01 1.30 1.08 0.90 1.06 1.40 1.45 1.49 1.58 1.83 1.55 1.71 1.50 1.12 0.87 1.00 0.95 0.79 0.44 0.43 0.42 0.50 0.48 0.40 0.35 0.28 0.29 0.29 0.30 0.60 1.04 1.34 1.66 1.88
0.02 0.19 0.62 0.82 0.83 0.86 0.82 0.89 1.22 1.27 1.38 1.19 1.56 1.71 1.90 1.69 1.64 1.56 1.56 1.68 2.19 2.25 1.82 1.58 1.41 1.34 1.05 0.80 0.50 0.36 0.40 0.40 0.30 0.31 0.22 0.19 0.23 0.31 0.43 0.66 1.03 1.59 1.93
0.03 0.26 0.74 0.92 1.16 1.32 1.19 1.12 1.00 1.08 1.04 1.00 0.99 1.20 1.60 1.59 1.54 1.76 1.77 1.40 1.69 2.02 1.88 1.77 1.54 1.44 1.36 1.27 1.04 0.93 0.81 0.73 0.59 0.48 0.39 0.33 0.33 0.38 0.45 0.50 0.69 0.94 1.41
0.10 0.40 0.74 0.90 1.20 1.16 0.66 0.54 0.58 0.60 0.51 0.67 0.71 0.98 1.28 1.58 1.44 1.25 1.12 1.09 1.22 1.29 1.38 1.76 2.27 2.46 2.19 2.11 1.97 1.53 1.00 0.77 0.65 0.45 0.40 0.35 0.33 0.41 0.56 0.68 0.83 0.95 1.08
0.24 0.52 0.62 0.49 0.35 0.21 0.18 0.29 0.42 0.52 0.55 0.51 0.61 0.81 0.91 1.43 1.44 1.10 1.00 0.94 1.17 1.26 1.16 1.11 1.42 1.75 1.70 2.11 2.35 2.37 2.02 1.50 0.83 0.50 0.51 0.49 0.50 0.61 0.76 0.72 0.96 1.09 1.49
0.15 0.16 0.14 0.11 0.09 0.13 0.16 0.38 0.61 0.92 0.85 0.71 0.63 0.63 0.78 1.16 1.58 1.56 1.29 1.07 1.12 1.64 1.76 1.58 1.60 1.90 1.77 1.92 2.56 3.07 2.81 1.94 1.37 1.10 1.16 1.09 1.06 1.06 1.06 1.40 1.93 2.33 2.57
0.03 0.14 0.15 0.15 0.17 0.26 0.30 0.40 0.55 0.54 0.43 0.28 0.31 0.43 0.55 1.13 1.71 1.52 1.77 1.90 1.76 1.56 1.65 2.00 2.21 2.17 2.53 2.30 3.00 2.75 2.47 2.69 2.76 2.76 2.27 2.31 2.07 1.67 2.04 2.57 2.38 2.45 2.68
0.09 0.16 0.18 0.17 0.21 0.32 0.38 0.43 0.76 0.84 0.87 0.89 1.03 1.18 1.25 1.49 1.95 2.10 2.15 2.76 2.66 2.43 2.04 2.42 3.23 3.73 3.69 4.19 4.14 3.70 3.65 3.23 2.92 3.36 2.80 2.73 3.36 2.71 2.20 2.15 2.50 2.63 2.42
0.13 0.18 0.15 0.27 0.43 0.74 0.99 1.16 1.33 1.56 1.63 1.61 1.60 1.62 1.76 1.94 2.41 2.81 2.96 2.87 3.40 3.45 3.16 2.98 3.43 4.30 4.72 4.56 3.92 4.13 4.26 3.87 3.17 4.25 4.35 3.41 2.85 2.71 3.17 3.07 2.22 2.13 2.19

GFSSE_prec_precacc_336.txt.gz
Total_Precipitation_Accumulation
0.55 0.19 0.20 0.32 0.26 0.16 0.13 0.09 0.06 0.05 0.09 0.08 0.08 0.05 0.05 0.05 0.07 0.05 0.13 0.18 0.13 0.15 0.11 0.05 0.05 0.09 0.14 0.18 0.25 0.33 0.28 0.37 0.55 0.83 0.68 0.58 0.39 0.37 0.42 0.51 0.71 1.04 1.38
0.78 0.48 0.49 0.37 0.19 0.16 0.22 0.15 0.09 0.07 0.10 0.07 0.03 0.01 0.01 0.01 0.03 0.06 0.19 0.25 0.24 0.18 0.16 0.08 0.08 0.10 0.16 0.16 0.16 0.18 0.19 0.15 0.19 0.47 0.77 1.00 0.79 0.58 0.72 0.70 0.62 0.84 1.12
1.59 1.10 1.61 1.35 0.68 0.31 0.28 0.24 0.09 0.08 0.06 0.05 0.02 0.01 0.02 0.03 0.02 0.04 0.04 0.13 0.16 0.12 0.11 0.08 0.09 0.12 0.13 0.13 0.15 0.14 0.07 0.05 0.11 0.24 0.57 0.97 0.89 1.15 0.76 0.59 0.57 0.78 0.94
1.56 1.61 1.47 2.34 1.47 1.00 0.75 0.82 0.87 0.41 0.29 0.09 0.07 0.10 0.12 0.09 0.08 0.10 0.07 0.11 0.09 0.10 0.11 0.12 0.14 0.16 0.16 0.13 0.13 0.10 0.04 0.03 0.03 0.12 0.42 1.57 1.48 1.34 1.11 0.78 0.78 0.91 1.06
1.09 1.01 1.32 2.12 1.59 1.06 1.15 1.15 1.68 2.01 1.89 1.04 0.46 0.42 0.39 0.31 0.20 0.12 0.11 0.11 0.12 0.16 0.16 0.12 0.18 0.19 0.08 0.05 0.09 0.11 0.01 0.03 0.07 0.22 1.21 1.27 0.99 1.74 2.02 1.22 1.06 0.94 1.18
2.08 1.53 1.80 2.17 1.34 0.75 1.13 1.46 1.53 2.18 3.37 4.19 4.09 2.55 1.36 0.89 0.47 0.41 0.30 0.27 0.27 0.33 0.40 0.44 0.45 0.37 0.04 0.02 0.01 0.03 0.01 0.05 0.22 0.43 1.35 0.76 1.14 1.33 1.39 1.33 0.87 0.90 1.17
4.59 4.05 3.70 4.01 5.13 2.85 2.57 1.76 1.36 1.47 2.52 4.90 5.29 3.92 2.58 1.93 1.72 1.18 0.69 0.52 0.56 0.53 0.43 0.44 0.27 0.20 0.04 0.02 0.02 0.06 0.05 0.06 0.22 0.47 1.01 0.68 1.35 1.28 1.17 1.07 0.99 0.87 0.88
6.63 8.76 9.08 7.75 8.11 7.64 4.86 3.04 1.99 1.42 1.26 1.68 2.39 2.00 2.09 2.35 1.80 1.66 1.47 0.93 0.63 0.46 0.42 0.30 0.15 0.10 0.07 0.04 0.04 0.11 0.08 0.06 0.18 0.64 1.31 0.91 1.16 1.29 0.91 0.79 0.66 0.67 0.64
5.54 7.05 10.73 9.55 7.17 5.94 6.78 5.98 3.58 2.63 1.74 1.50 1.48 1.79 1.43 2.21 1.72 1.29 1.44 1.68 0.83 0.46 0.64 0.51 0.37 0.58 0.23 0.25 0.23 0.22 0.14 0.13 0.25 0.48 1.04 0.67 0.90 1.46 1.15 0.81 0.67 0.61 0.60
2.60 3.37 3.98 4.09 3.32 2.93 3.65 4.61 4.44 3.05 2.55 2.21 1.49 1.61 1.74 1.69 1.62 1.49 1.57 1.81 1.40 0.63 0.57 0.56 0.76 0.60 0.62 0.42 0.26 0.32 0.35 0.35 0.21 0.61 0.70 0.47 0.74 1.20 1.24 0.87 0.79 0.75 0.64
2.30 1.64 1.69 1.30 0.90 0.88 1.34 2.08 2.81 2.59 2.65 2.61 2.12 1.37 2.09 2.24 1.39 1.70 1.94 1.72 1.18 0.69 0.63 0.64 0.67 0.68 0.66 0.71 0.70 0.68 0.52 0.26 0.35 0.46 0.54 0.40 0.64 0.70 1.06 1.32 1.06 0.86 0.86
0.95 0.78 0.51 0.41 0.33 0.31 0.32 0.49 0.83 1.58 2.31 2.35 2.90 1.67 1.56 2.44 1.43 1.51 1.91 1.39 1.18 0.78 0.57 0.59 0.57 0.59 0.62 0.51 0.63 0.56 0.30 0.22 0.34 0.60 0.48 0.41 0.59 0.61 0.97 1.17 0.90 1.03 1.02
0.32 0.22 0.28 0.50 0.51 0.25 0.28 0.31 0.43 0.82 1.59 1.62 2.61 2.27 1.00 1.45 1.75 1.84 2.24 1.41 1.01 0.96 0.79 0.71 0.43 0.37 0.36 0.40 0.45 0.49 0.57 0.57 0.62 0.60 0.48 0.31 0.61 0.78 0.99 0.76 0.66 0.81 0.98
0.16 0.16 0.12 0.18 0.27 0.29 0.31 0.35 0.48 0.76 1.12 1.12 1.41 2.47 1.27 1.17 1.36 1.59 1.67 1.26 0.67 0.61 0.58 0.63 0.47 0.42 0.42 0.53 0.54 0.57 0.74 1.06 1.15 1.33 0.68 0.43 0.63 1.24 1.03 0.84 0.66 0.59 0.76
0.08 0.16 0.20 0.21 0.39 0.49 0.49 0.45 0.42 1.03 1.20 1.09 1.07 1.39 1.32 1.22 1.06 1.41 1.19 1.47 0.83 0.59 0.49 0.53 0.43 0.38 0.37 0.40 0.33 0.41 0.56 0.89 1.54 1.35 0.98 0.64 0.65 0.91 1.24 1.22 0.93 0.64 0.67
0.10 0.19 0.28 0.29 0.47 0.37 0.53 0.72 0.84 1.00 1.20 1.10 1.00 1.12 1.11 1.26 1.19 1.35 1.25 1.19 1.12 1.11 0.60 0.55 0.52 0.32 0.36 0.42 0.46 0.38 0.42 0.47 0.68 0.71 0.63 0.62 0.97 1.20 1.53 1.77 1.72 1.32 0.84
0.22 0.25 0.42 0.65 0.57 0.34 0.37 0.49 0.84 1.28 1.13 1.04 1.03 1.11 1.19 1.27 1.38 1.46 1.49 1.34 1.26 1.74 1.18 0.73 0.71 0.67 0.49 0.37 0.41 0.44 0.49 0.36 0.33 0.36 0.43 0.41 0.57 1.02 1.13 1.34 1.68 1.79 1.59
0.07 0.19 0.43 0.61 0.60 0.68 0.55 0.64 0.70 1.01 1.30 1.08 0.90 1.06 1.40 1.45 1.49 1.58 1.83 1.55 1.71 1.50 1.12 0.87 1.00 0.95 0.79 0.44 0.43 0.42 0.50 0.48 0.40 0.35 0.28 0.29 0.29 0.30 0.60 1.04 1.34 1.66 1.88
0.02 0.19 0.62 0.82 0.83 0.86 0.82 0.89 1.22 1.27 1.38 1.19 1.56 1.71 1.90 1.69 1.64 1.56 1.56 1.68 2.19 2.25 1.82 1.58 1.41 1.34 1.05 0.80 0.50 0.36 0.40 0.40 0.30 0.31 0.22 0.19 0.23 0.31 0.43 0.66 1.03 1.59 1.94
0.03 0.26 0.74 0.92 1.16 1.32 1.19 1.12 1.00 1.08 1.04 1.00 0.99 1.20 1.60 1.59 1.54 1.76 1.77 1.40 1.69 2.02 1.88 1.77 1.54 1.44 1.36 1.27 1.04 0.93 0.81 0.73 0.59 0.48 0.39 0.33 0.33 0.38 0.45 0.50 0.69 0.94 1.42
0.10 0.40 0.74 0.90 1.20 1.16 0.66 0.54 0.58 0.60 0.51 0.67 0.71 0.98 1.28 1.58 1.44 1.25 1.12 1.09 1.22 1.29 1.38 1.76 2.27 2.46 2.19 2.11 1.97 1.53 1.00 0.77 0.65 0.45 0.40 0.35 0.33 0.41 0.56 0.68 0.83 0.95 1.08
0.24 0.52 0.62 0.49 0.35 0.21 0.18 0.29 0.42 0.52 0.55 0.51 0.61 0.81 0.91 1.43 1.44 1.10 1.00 0.94 1.17 1.26 1.16 1.11 1.42 1.75 1.70 2.11 2.35 2.37 2.02 1.50 0.83 0.50 0.51 0.49 0.50 0.61 0.76 0.72 0.96 1.09 1.49
0.15 0.16 0.14 0.11 0.09 0.13 0.16 0.38 0.61 0.92 0.85 0.71 0.63 0.63 0.78 1.16 1.58 1.56 1.29 1.07 1.12 1.64 1.76 1.58 1.60 1.90 1.77 1.92 2.56 3.08 2.82 1.95 1.37 1.10 1.16 1.09 1.06 1.06 1.06 1.40 1.93 2.33 2.58
0.03 0.14 0.15 0.15 0.17 0.26 0.30 0.40 0.55 0.54 0.43 0.28 0.31 0.43 0.55 1.13 1.71 1.52 1.77 1.90 1.76 1.56 1.65 2.00 2.21 2.17 2.53 2.30 3.00 2.75 2.48 2.71 2.81 2.78 2.27 2.31 2.07 1.67 2.04 2.57 2.38 2.46 2.69
0.09 0.16 0.18 0.17 0.21 0.32 0.38 0.43 0.76 0.84 0.87 0.89 1.03 1.18 1.25 1.49 1.95 2.10 2.15 2.76 2.66 2.43 2.04 2.42 3.23 3.73 3.69 4.19 4.14 3.72 3.65 3.23 2.92 3.39 2.81 2.73 3.36 2.71 2.20 2.15 2.52 2.64 2.43
0.13 0.18 0.15 0.27 0.43 0.74 0.99 1.16 1.33 1.56 1.63 1.61 1.60 1.62 1.76 1.94 2.41 2.81 2.96 2.87 3.40 3.45 3.16 2.98 3.43 4.30 4.72 4.57 3.95 4.16 4.27 3.90 3.19 4.29 4.37 3.41 2.85 2.71 3.17 3.07 2.23 2.13 2.19

GFSSE_prec_precacc_339.txt.gz
Total_Precipitation_Accumulation
0.55 0.19 0.20 0.32 0.26 0.16 0.13 0.09 0.06 0.05 0.09 0.08 0.08 0.05 0.05 0.05 0.07 0.05 0.13 0.18 0.13 0.15 0.11 0.05 0.05 0.09 0.14 0.18 0.25 0.33 0.28 0.37 0.55 0.83 0.68 0.58 0.39 0.37 0.42 0.51 0.71 1.04 1.38
0.78 0.48 0.49 0.37 0.19 0.16 0.22 0.15 0.09 0.07 0.10 0.07 0.03 0.01 0.01 0.01 0.03 0.06 0.19 0.25 0.24 0.18 0.16 0.08 0.08 0.10 0.16 0.16 0.16 0.18 0.19 0.15 0.19 0.47 0.77 1.00 0.79 0.58 0.72 0.70 0.62 0.85 1.12
1.59 1.10 1.61 1.35 0.68 0.31 0.28 0.24 0.09 0.08 0.06 0.05 0.02 0.01 0.02 0.03 0.02 0.04 0.04 0.13 0.16 0.12 0.11 0.08 0.09 0.12 0.13 0.13 0.15 0.14 0.07 0.05 0.11 0.24 0.57 0.97 0.89 1.15 0.76 0.60 0.57 0.79 0.94
1.56 1.61 1.47 2.34 1.47 1.00 0.75 0.82 0.87 0.41 0.29 0.09 0.07 0.10 0.12 0.09 0.08 0.10 0.07 0.11 0.09 0.10 0.11 0.12 0.14 0.16 0.16 0.13 0.13 0.10 0.04 0.03 0.03 0.12 0.42 1.57 1.48 1.34 1.12 0.79 0.79 0.92 1.06
1.09 1.01 1.32 2.12 1.59 1.06 1.15 1.15 1.68 2.01 1.89 1.04 0.46 0.42 0.39 0.31 0.20 0.12 0.11 0.11 0.12 0.16 0.16 0.12 0.18 0.19 0.08 0.05 0.09 0.11 0.01 0.03 0.07 0.22 1.21 1.27 0.99 1.75 2.04 1.25 1.07 0.96 1.19
2.08 1.53 1.80 2.17 1.34 0.75 1.13 1.46 1.53 2.18 3.37 4.19 4.09 2.55 1.36 0.89 0.47 0.41 0.30 0.27 0.27 0.33 0.40 0.44 0.45 0.37 0.04 0.02 0.01 0.03 0.01 0.05 0.22 0.43 1.35 0.76 1.14 1.34 1.41 1.35 0.89 0.92 1.20
4.59 4.05 3.70 4.01 5.13 2.85 2.57 1.76 1.36 1.47 2.52 4.90 5.29 3.92 2.58 1.93 1.72 1.18 0.69 0.52 0.56 0.53 0.43 0.44 0.27 0.20 0.04 0.02 0.02 0.06 0.05 0.06 0.22 0.47 1.01 0.68 1.35 1.28 1.17 1.07 0.99 0.88 0.89
6.63 8.76 9.08 7.75 8.11 7.64 4.86 3.04 1.99 1.42 1.26 1.68 2.39 2.00 2.09 2.35 1.80 1.66 1.47 0.93 0.63 0.46 0.42 0.30 0.15 0.10 0.07 0.04 0.04 0.11 0.08 0.06 0.18 0.64 1.31 0.91 1.16 1.29 0.91 0.79 0.66 0.67 0.65
5.54 7.05 10.73 9.55 7.17 5.94 6.78 5.98 3.58 2.63 1.74 1.50 1.48 1.79 1.43 2.21 1.72 1.29 1.44 1.68 0.83 0.46 0.64 0.51 0.37 0.58 0.23 0.25 0.23 0.22 0.14 0.13 0.25 0.48 1.04 0.67 0.90 1.46 1.15 0.81 0.67 0.61 0.60
2.60 3.37 3.98 4.09 3.32 2.93 3.65 4.61 4.44 3.05 2.55 2.21 1.49 1.61 1.74 1.69 1.62 1.49 1.57 1.81 1.40 0.63 0.57 0.56 0.76 0.60 0.62 0.42 0.26 0.32 0.35 0.35 0.21 0.61 0.70 0.47 0.74 1.20 1.24 0.87 0.79 0.75 0.64
2.30 1.64 1.69 1.30 0.90 0.88 1.34 2.08 2.81 2.59 2.65 2.61 2.12 1.37 2.09 2.24 1.39 1.70 1.94 1.72 1.18 0.69 0.63 0.64 0.67 0.68 0.66 0.71 0.70 0.68 0.52 0.26 0.35 0.46 0.54 0.40 0.64 0.70 1.06 1.32 1.06 0.86 0.86
0.95 0.78 0.51 0.41 0.33 0.31 0.32 0.49 0.83 1.58 2.31 2.35 2.90 1.67 1.56 2.44 1.43 1.51 1.91 1.39 1.18 0.78 0.57 0.59 0.57 0.59 0.62 0.51 0.63 0.56 0.30 0.22 0.34 0.60 0.48 0.41 0.59 0.61 0.97 1.17 0.90 1.03 1.02
0.32 0.22 0.28 0.50 0.51 0.25 0.28 0.31 0.43 0.82 1.59 1.62 2.61 2.27 1.00 1.45 1.75 1.84 2.24 1.41 1.01 0.96 0.79 0.71 0.43 0.37 0.36 0.40 0.45 0.49 0.57 0.57 0.62 0.60 0.48 0.31 0.61 0.78 0.99 0.76 0.66 0.81 0.98
0.16 0.16 0.12 0.18 0.27 0.29 0.31 0.35 0.48 0.76 1.12 1.12 1.41 2.47 1.27 1.17 1.36 1.59 1.67 1.26 0.67 0.61 0.58 0.63 0.47 0.42 0.42 0.53 0.54 0.57 0.74 1.06 1.15 1.33 0.68 0.43 0.63 1.24 1.03 0.84 0.66 0.59 0.76
0.08 0.16 0.20 0.21 0.39 0.49 0.49 0.45 0.42 1.03 1.20 1.09 1.07 1.39 1.32 1.22 1.06 1.41 1.19 1.47 0.83 0.59 0.49 0.53 0.43 0.38 0.37 0.40 0.33 0.41 0.56 0.89 1.54 1.35 0.98 0.64 0.65 0.91 1.24 1.22 0.93 0.64 0.67
0.10 0.19 0.28 0.29 0.47 0.37 0.53 0.72 0.84 1.00 1.20 1.10 1.00 1.12 1.11 1.26 1.19 1.35 1.25 1.19 1.12 1.11 0.60 0.55 0.52 0.32 0.36 0.42 0.46 0.38 0.42 0.47 0.68 0.71 0.63 0.62 0.97 1.20 1.53 1.77 1.72 1.32 0.84
0.22 0.25 0.42 0.65 0.57 0.34 0.37 0.49 0.84 1.28 1.13 1.04 1.03 1.11 1.19 1.27 1.38 1.46 1.49 1.34 1.26 1.74 1.18 0.73 0.71 0.67 0.49 0.37 0.41 0.44 0.49 0.36 0.33 0.36 0.43 0.41 0.57 1.02 1.13 1.34 1.68 1.79 1.59
0.07 0.19 0.43 0.61 0.60 0.68 0.55 0.64 0.70 1.01 1.30 1.08 0.90 1.06 1.40 1.45 1.49 1.58 1.83 1.55 1.71 1.50 1.12 0.87 1.00 0.95 0.79 0.44 0.43 0.42 0.50 0.48 0.40 0.35 0.28 0.29 0.29 0.30 0.60 1.04 1.34 1.66 1.88
0.02 0.19 0.62 0.82 0.83 0.86 0.82 0.89 1.22 1.27 1.38 1.19 1.56 1.71 1.90 1.69 1.64 1.56 1.56 1.68 2.19 2.25 1.82 1.58 1.41 1.34 1.05 0.80 0.50 0.36 0.40 0.40 0.30 0.31 0.22 0.19 0.23 0.31 0.43 0.66 1.03 1.59 1.94
0.03 0.26 0.74 0.92 1.16 1.32 1.19 1.12 1.00 1.08 1.04 1.00 0.99 1.20 1.60 1.59 1.54 1.76 1.77 1.40 1.69 2.02 1.88 1.77 1.54 1.44 1.36 1.27 1.04 0.93 0.81 0.73 0.59 0.48 0.39 0.33 0.33 0.38 0.45 0.50 0.69 0.94 1.42
0.10 0.40 0.74 0.90 1.20 1.16 0.66 0.54 0.58 0.60 0.51 0.67 0.71 0.98 1.28 1.58 1.44 1.25 1.12 1.09 1.22 1.29 1.38 1.76 2.27 2.46 2.19 2.11 1.97 1.53 1.00 0.77 0.65 0.45 0.40 0.35 0.33 0.41 0.56 0.68 0.83 0.95 1.08
0.24 0.52 0.62 0.49 0.35 0.21 0.18 0.29 0.42 0.52 0.55 0.51 0.61 0.81 0.91 1.43 1.44 1.10 1.00 0.94 1.17 1.26 1.16 1.11 1.42 1.75 1.70 2.11 2.35 2.37 2.02 1.50 0.83 0.50 0.51 0.49 0.50 0.61 0.76 0.72 0.96 1.09 1.49
0.15 0.16 0.14 0.11 0.09 0.13 0.16 0.38 0.61 0.92 0.85 0.71 0.63 0.63 0.78 1.16 1.58 1.56 1.29 1.07 1.12 1.64 1.76 1.58 1.60 1.90 1.77 1.92 2.56 3.08 2.82 1.95 1.37 1.10 1.16 1.09 1.06 1.06 1.06 1.40 1.93 2.33 2.58
0.03 0.14 0.15 0.15 0.17 0.26 0.30 0.40 0.55 0.54 0.43 0.28 0.31 0.43 0.55 1.13 1.71 1.52 1.77 1.90 1.76 1.56 1.65 2.00 2.21 2.17 2.53 2.30 3.01 2.75 2.48 2.72 2.81 2.79 2.27 2.31 2.07 1.67 2.04 2.57 2.38 2.46 2.69
0.09 0.16 0.18 0.17 0.21 0.32 0.38 0.43 0.76 0.84 0.87 0.89 1.03 1.18 1.25 1.49 1.95 2.10 2.15 2.76 2.66 2.43 2.04 2.42 3.23 3.73 3.69 4.19 4.15 3.73 3.66 3.23 2.92 3.39 2.82 2.73 3.36 2.71 2.20 2.15 2.52 2.64 2.43
0.13 0.18 0.15 0.27 0.43 0.74 0.99 1.16 1.33 1.56 1.63 1.61 1.60 1.62 1.76 1.94 2.41 2.81 2.96 2.87 3.40 3.45 3.16 2.98 3.43 4.30 4.72 4.57 3.95 4.16 4.28 3.90 3.19 4.30 4.38 3.41 2.85 2.71 3.17 3.07 2.23 2.13 2.19

GFSSE_prec_precacc_345.txt.gz
Total_Precipitation_Accumulation
0.55 0.19 0.20 0.32 0.26 0.16 0.13 0.09 0.06 0.05 0.09 0.08 0.08 0.05 0.05 0.05 0.07 0.05 0.13 0.18 0.13 0.15 0.11 0.05 0.05 0.09 0.14 0.18 0.25 0.33 0.28 0.37 0.55 0.83 0.68 0.58 0.39 0.37 0.42 0.51 0.72 1.04 1.38
0.78 0.48 0.49 0.37 0.19 0.16 0.22 0.15 0.09 0.07 0.10 0.07 0.03 0.01 0.01 0.01 0.03 0.06 0.19 0.25 0.24 0.18 0.16 0.08 0.08 0.10 0.16 0.16 0.16 0.18 0.19 0.15 0.19 0.47 0.77 1.00 0.79 0.58 0.72 0.72 0.65 0.85 1.12
1.59 1.10 1.61 1.35 0.68 0.31 0.28 0.24 0.09 0.08 0.06 0.05 0.02 0.01 0.02 0.03 0.02 0.04 0.04 0.13 0.16 0.12 0.11 0.08 0.09 0.12 0.13 0.13 0.15 0.14 0.07 0.05 0.11 0.24 0.57 0.97 0.89 1.15 0.77 0.63 0.60 0.81 0.96
1.56 1.61 1.47 2.34 1.47 1.00 0.75 0.82 0.87 0.41 0.29 0.09 0.07 0.10 0.12 0.09 0.08 0.10 0.07 0.11 0.09 0.10 0.11 0.12 0.14 0.16 0.16 0.13 0.13 0.10 0.04 0.03 0.03 0.12 0.42 1.57 1.48 1.34 1.15 0.82 0.82 0.94 1.09
1.09 1.01 1.32 2.12 1.59 1.06 1.15 1.15 1.68 2.01 1.89 1.04 0.46 0.42 0.39 0.31 0.20 0.12 0.11 0.11 0.12 0.16 0.16 0.12 0.18 0.19 0.08 0.05 0.09 0.11 0.01 0.03 0.07 0.22 1.21 1.27 0.99 1.75 2.06 1.26 1.08 0.96 1.21
2.08 1.53 1.80 2.17 1.34 0.75 1.13 1.46 1.53 2.18 3.37 4.19 4.09 2.55 1.36 0.89 0.47 0.41 0.30 0.27 0.27 0.33 0.40 0.44 0.45 0.37 0.04 0.02 0.01 0.03 0.01 0.05 0.22 0.43 1.35 0.76 1.14 1.34 1.41 1.35 0.89 0.92 1.21
4.59 4.05 3.70 4.01 5.13 2.85 2.57 1.76 1.36 1.47 2.52 4.90 5.29 3.92 2.58 1.93 1.72 1.18 0.69 0.52 0.56 0.53 0.43 0.44 0.27 0.20 0.04 0.02 0.02 0.06 0.05 0.06 0.22 0.47 1.01 0.68 1.35 1.28 1.17 1.07 0.99 0.88 0.89
6.63 8.76 9.08 7.75 8.11 7.64 4.86 3.04 1.99 1.42 1.26 1.68 2.39 2.00 2.09 2.35 1.80 1.66 1.47 0.93 0.63 0.46 0.42 0.30 0.15 0.10 0.07 0.04 0.04 0.11 0.08 0.06 0.18 0.64 1.31 0.91 1.16 1.29 0.91 0.79 0.66 0.67 0.65
5.54 7.05 10.73 9.55 7.17 5.94 6.78 5.98 3.58 2.63 1.74 1.50 1.48 1.79 1.43 2.21 1.72 1.29 1.44 1.68 0.83 0.46 0.64 0.51 0.37 0.58 0.23 0.25 0.23 0.22 0.14 0.13 0.25 0.48 1.04 0.67 0.90 1.46 1.15 0.81 0.67 0.61 0.60
2.60 3.37 3.98 4.09 3.32 2.93 3.65 4.61 4.44 3.05 2.55 2.21 1.49 1.61 1.74 1.69 1.62 1.49 1.57 1.81 1.40 0.63 0.57 0.56 0.76 0.60 0.62 0.42 0.26 0.32 0.35 0.35 0.21 0.61 0.70 0.47 0.74 1.20 1.24 0.87 0.79 0.75 0.64
2.30 1.64 1.69 1.30 0.90 0.88 1.34 2.08 2.81 2.59 2.65 2.61 2.12 1.37 2.09 2.24 1.39 1.70 1.94 1.72 1.18 0.69 0.63 0.64 0.67 0.68 0.66 0.71 0.70 0.68 0.52 0.26 0.35 0.46 0.54 0.40 0.64 0.70 1.06 1.32 1.06 0.86 0.86
0.95 0.78 0.51 0.41 0.33 0.31 0.32 0.49 0.83 1.58 2.31 2.35 2.90 1.67 1.56 2.44 1.43 1.51 1.91 1.39 1.18 0.78 0.57 0.59 0.57 0.59 0.62 0.51 0.63 0.56 0.30 0.22 0.34 0.60 0.48 0.41 0.59 0.61 0.97 1.17 0.90 1.03 1.02
0.32 0.22 0.28 0.50 0.51 0.25 0.28 0.31 0.43 0.82 1.59 1.62 2.61 2.27 1.00 1.45 1.75 1.84 2.24 1.41 1.01 0.96 0.79 0.71 0.43 0.37 0.36 0.40 0.45 0.49 0.57 0.57 0.62 0.60 0.48 0.31 0.61 0.78 0.99 0.76 0.66 0.81 0.98
0.16 0.16 0.12 0.18 0.27 0.29 0.31 0.35 0.48 0.76 1.12 1.12 1.41 2.47 1.27 1.17 1.36 1.59 1.67 1.26 0.67 0.61 0.58 0.63 0.47 0.42 0.42 0.53 0.54 0.57 0.74 1.06 1.15 1.33 0.68 0.43 0.63 1.24 1.03 0.84 0.66 0.59 0.77
0.08 0.16 0.20 0.21 0.39 0.49 0.49 0.45 0.42 1.03 1.20 1.09 1.07 1.39 1.32 1.22 1.06 1.41 1.19 1.47 0.83 0.59 0.49 0.53 0.43 0.38 0.37 0.40 0.33 0.41 0.56 0.89 1.54 1.35 0.98 0.64 0.65 0.91 1.24 1.22 0.93 0.64 0.67
0.10 0.19 0.28 0.29 0.47 0.37 0.53 0.72 0.84 1.00 1.20 1.10 1.00 1.12 1.11 1.26 1.19 1.35 1.25 1.19 1.12 1.11 0.60 0.55 0.52 0.32 0.36 0.42 0.46 0.38 0.42 0.47 0.68 0.71 0.63 0.62 0.97 1.20 1.53 1.77 1.72 1.32 0.84
0.22 0.25 0.42 0.65 0.57 0.34 0.37 0.49 0.84 1.28 1.13 1.04 1.03 1.11 1.19 1.27 1.38 1.46 1.49 1.34 1.26 1.74 1.18 0.73 0.71 0.67 0.49 0.37 0.41 0.44 0.49 0.36 0.33 0.36 0.43 0.41 0.57 1.02 1.13 1.34 1.68 1.79 1.60
0.07 0.19 0.43 0.61 0.60 0.68 0.55 0.64 0.70 1.01 1.30 1.08 0.90 1.06 1.40 1.45 1.49 1.58 1.83 1.55 1.71 1.50 1.12 0.87 1.00 0.95 0.79 0.44 0.43 0.42 0.50 0.48 0.40 0.35 0.28 0.29 0.29 0.30 0.60 1.04 1.34 1.66 1.88
0.02 0.19 0.62 0.82 0.83 0.86 0.82 0.89 1.22 1.27 1.38 1.19 1.56 1.71 1.90 1.69 1.64 1.56 1.56 1.68 2.19 2.25 1.82 1.58 1.41 1.34 1.05 0.80 0.50 0.36 0.40 0.40 0.30 0.31 0.22 0.19 0.23 0.31 0.43 0.66 1.03 1.59 1.94
0.03 0.26 0.74 0.92 1.16 1.32 1.19 1.12 1.00 1.08 1.04 1.00 0.99 1.20 1.60 1.59 1.54 1.76 1.77 1.40 1.69 2.02 1.88 1.77 1.54 1.44 1.36 1.27 1.04 0.93 0.81 0.73 0.59 0.48 0.39 0.33 0.33 0.38 0.45 0.50 0.69 0.94 1.42
0.10 0.40 0.74 0.90 1.20 1.16 0.66 0.54 0.58 0.60 0.51 0.67 0.71 0.98 1.28 1.58 1.44 1.25 1.12 1.09 1.22 1.29 1.38 1.76 2.27 2.46 2.19 2.11 1.97 1.53 1.00 0.77 0.65 0.45 0.40 0.35 0.33 0.41 0.56 0.68 0.83 0.95 1.08
0.24 0.52 0.62 0.49 0.35 0.21 0.18 0.29 0.42 0.52 0.55 0.51 0.61 0.81 0.91 1.43 1.44 1.10 1.00 0.94 1.17 1.26 1.16 1.11 1.42 1.75 1.70 2.11 2.35 2.37 2.02 1.50 0.83 0.50 0.51 0.49 0.50 0.61 0.76 0.72 0.96 1.09 1.49
0.15 0.16 0.14 0.11 0.09 0.13 0.16 0.38 0.61 0.92 0.85 0.71 0.63 0.63 0.78 1.16 1.58 1.56 1.29 1.07 1.12 1.64 1.76 1.58 1.60 1.90 1.77 1.92 2.56 3.08 2.82 1.95 1.37 1.10 1.16 1.09 1.06 1.06 1.06 1.40 1.93 2.33 2.58
0.03 0.14 0.15 0.15 0.17 0.26 0.30 0.40 0.55 0.54 0.43 0.28 0.31 0.43 0.55 1.13 1.71 1.52 1.77 1.90 1.76 1.56 1.65 2.00 2.21 2.17 2.53 2.30 3.01 2.75 2.49 2.75 2.84 2.80 2.27 2.31 2.07 1.67 2.04 2.57 2.38 2.46 2.69
0.09 0.16 0.18 0.17 0.21 0.33 0.38 0.43 0.76 0.84 0.87 0.89 1.03 1.18 1.25 1.49 1.95 2.10 2.15 2.76 2.66 2.43 2.04 2.42 3.23 3.73 3.69 4.19 4.16 3.74 3.67 3.24 2.93 3.42 2.83 2.73 3.36 2.71 2.20 2.15 2.52 2.64 2.43
0.13 0.18 0.15 0.28 0.44 0.74 0.99 1.16 1.33 1.56 1.63 1.61 1.60 1.62 1.76 1.94 2.41 2.81 2.96 2.87 3.40 3.45 3.16 2.98 3.43 4.30 4.72 4.57 3.95 4.17 4.30 3.93 3.21 4.33 4.40 3.41 2.85 2.71 3.17 3.07 2.23 2.13 2.19

GFSSE_prec_precacc_348.txt.gz
Total_Precipitation_Accumulation
0.55 0.19 0.20 0.32 0.26 0.16 0.13 0.09 0.06 0.05 0.09 0.08 0.08 0.05 0.05 0.05 0.07 0.05 0.13 0.18 0.13 0.15 0.11 0.05 0.05 0.09 0.14 0.18 0.25 0.33 0.28 0.37 0.55 0.83 0.68 0.58 0.39 0.37 0.42 0.51 0.72 1.05 1.39
0.78 0.48 0.49 0.37 0.19 0.16 0.22 0.15 0.09 0.07 0.10 0.07 0.03 0.01 0.01 0.01 0.03 0.06 0.19 0.25 0.24 0.18 0.16 0.08 0.08 0.10 0.16 0.16 0.16 0.18 0.19 0.15 0.19 0.47 0.77 1.00 0.79 0.58 0.73 0.72 0.66 0.86 1.13
1.59 1.10 1.61 1.35 0.68 0.31 0.28 0.24 0.09 0.08 0.06 0.05 0.02 0.01 0.02 0.03 0.02 0.04 0.04 0.13 0.16 0.12 0.11 0.08 0.09 0.12 0.13 0.13 0.15 0.14 0.07 0.05 0.11 0.24 0.57 0.97 0.89 1.16 0.78 0.63 0.60 0.81 0.96
1.56 1.61 1.47 2.34 1.47 1.00 0.75 0.82 0.87 0.41 0.29 0.09 0.07 0.10 0.12 0.09 0.08 0.10 0.07 0.11 0.09 0.10 0.11 0.12 0.14 0.16 0.16 0.13 0.13 0.10 0.04 0.03 0.03 0.12 0.42 1.57 1.48 1.34 1.15 0.82 0.82 0.94 1.09
1.09 1.01 1.32 2.12 1.59 1.06 1.15 1.15 1.68 2.01 1.89 1.04 0.46 0.42 0.39 0.31 0.20 0.12 0.11 0.11 0.12 0.16 0.16 0.12 0.18 0.19 0.08 0.05 0.09 0.11 0.01 0.03 0.07 0.22 1.21 1.27 0.99 1.75 2.06 1.26 1.08 0.96 1.21
2.08 1.53 1.80 2.17 1.34 0.75 1.13 1.46 1.53 2.18 3.37 4.19 4.09 2.55 1.36 0.89 0.47 0.41 0.30 0.27 0.27 0.33 0.40 0.44 0.45 0.37 0.04 0.02 0.01 0.03 0.01 0.05 0.22 0.43 1.35 0.76 1.14 1.34 1.41 1.35 0.89 0.92 1.21
4.59 4.05 3.70 4.01 5.13 2.85 2.57 1.76 1.36 1.47 2.52 4.90 5.29 3.92 2.58 1.93 1.72 1.18 0.69 0.52 0.56 0.53 0.43 0.44 0.27 0.20 0.04 0.02 0.02 0.06 0.05 0.06 0.22 0.47 1.01 0.68 1.35 1.28 1.17 1.07 0.99 0.88 0.89
6.63 8.76 9.08 7.75 8.11 7.64 4.86 3.04 1.99 1.42 1.26 1.68 2.39 2.00 2.09 2.35 1.80 1.66 1.47 0.93 0.63 0.46 0.42 0.30 0.15 0.10 0.07 0.04 0.04 0.11 0.08 0.06 0.18 0.64 1.31 0.91 1.16 1.29 0.91 0.79 0.66 0.67 0.65
5.54 7.05 10.73 9.55 7.17 5.94 6.78 5.98 3.58 2.63 1.74 1.50 1.48 1.79 1.43 2.21 1.72 1.29 1.44 1.68 0.83 0.46 0.64 0.51 0.37 0.58 0.23 0.25 0.23 0.22 0.14 0.13 0.25 0.48 1.04 0.67 0.90 1.46 1.15 0.81 0.67 0.61 0.60
2.60 3.37 3.98 4.09 3.32 2.93 3.65 4.61 4.44 3.05 2.55 2.21 1.49 1.61 1.74 1.69 1.62 1.49 1.57 1.81 1.40 0.63 0.57 0.56 0.76 0.60 0.62 0.42 0.26 0.32 0.35 0.35 0.21 0.61 0.70 0.47 0.74 1.20 1.24 0.87 0.79 0.75 0.64
2.30 1.64 1.69 1.30 0.90 0.88 1.34 2.08 2.81 2.59 2.65 2.61 2.12 1.37 2.09 2.24 1.39 1.70 1.94 1.72 1.18 0.69 0.63 0.64 0.67 0.68 0.66 0.71 0.70 0.68 0.52 0.26 0.35 0.46 0.54 0.40 0.64 0.70 1.06 1.32 1.06 0.86 0.86
0.95 0.78 0.51 0.41 0.33 0.31 0.32 0.49 0.83 1.58 2.31 2.35 2.90 1.67 1.56 2.44 1.43 1.51 1.91 1.39 1.18 0.78 0.57 0.59 0.57 0.59 0.62 0.51 0.63 0.56 0.30 0.22 0.34 0.60 0.48 0.41 0.59 0.61 0.97 1.17 0.90 1.03 1.02
0.32 0.22 0.28 0.50 0.51 0.25 0.28 0.31 0.43 0.82 1.59 1.62 2.61 2.27 1.00 1.45 1.75 1.84 2.24 1.41 1.01 0.96 0.79 0.71 0.43 0.37 0.36 0.40 0.45 0.49 0.57 0.57 0.62 0.60 0.48 0.31 0.61 0.78 0.99 0.76 0.66 0.81 0.98
0.16 0.16 0.12 0.18 0.27 0.29 0.31 0.35 0.48 0.76 1.12 1.12 1.41 2.47 1.27 1.17 1.36 1.59 1.67 1.26 0.67 0.61 0.58 0.63 0.47 0.42 0.42 0.53 0.54 0.57 0.74 1.06 1.15 1.33 0.68 0.43 0.63 1.24 1.03 0.84 0.66 0.59 0.77
0.08 0.16 0.20 0.21 0.39 0.49 0.49 0.45 0.42 1.03 1.20 1.09 1.07 1.39 1.32 1.22 1.06 1.41 1.19 1.47 0.83 0.59 0.49 0.53 0.43 0.38 0.37 0.40 0.33 0.41 0.56 0.89 1.54 1.35 0.98 0.64 0.65 0.91 1.24 1.22 0.93 0.64 0.67
0.10 0.19 0.28 0.29 0.47 0.37 0.53 0.72 0.84 1.00 1.20 1.10 1.00 1.12 1.11 1.26 1.19 1.35 1.25 1.19 1.12 1.11 0.60 0.55 0.52 0.32 0.36 0.42 0.46 0.38 0.42 0.47 0.68 0.71 0.63 0.62 0.97 1.20 1.53 1.77 1.72 1.32 0.84
0.22 0.25 0.42 0.65 0.57 0.34 0.37 0.49 0.84 1.28 1.13 1.04 1.03 1.11 1.19 1.27 1.38 1.46 1.49 1.34 1.26 1.74 1.18 0.73 0.71 0.67 0.49 0.37 0.41 0.44 0.49 0.36 0.33 0.36 0.43 0.41 0.57 1.02 1.13 1.34 1.68 1.79 1.60
0.07 0.19 0.43 0.61 0.60 0.68 0.55 0.64 0.70 1.01 1.30 1.08 0.90 1.06 1.40 1.45 1.49 1.58 1.83 1.55 1.71 1.50 1.12 0.87 1.00 0.95 0.79 0.44 0.43 0.42 0.50 0.48 0.40 0.35 0.28 0.29 0.29 0.30 0.60 1.04 1.34 1.66 1.88
0.02 0.19 0.62 0.82 0.83 0.86 0.82 0.89 1.22 1.27 1.38 1.19 1.56 1.71 1.90 1.69 1.64 1.56 1.56 1.68 2.19 2.25 1.82 1.58 1.41 1.34 1.05 0.80 0.50 0.36 0.40 0.40 0.30 0.31 0.22 0.19 0.23 0.31 0.43 0.66 1.03 1.59 1.94
0.03 0.26 0.74 0.92 1.16 1.32 1.19 1.12 1.00 1.08 1.04 1.00 0.99 1.20 1.60 1.59 1.54 1.76 1.77 1.40 1.69 2.02 1.88 1.77 1.54 1.44 1.36 1.27 1.04 0.93 0.81 0.73 0.59 0.48 0.39 0.33 0.33 0.38 0.45 0.50 0.69 0.94 1.42
0.10 0.40 0.74 0.90 1.20 1.16 0.66 0.54 0.58 0.60 0.51 0.67 0.71 0.98 1.28 1.58 1.44 1.25 1.12 1.09 1.22 1.29 1.38 1.76 2.27 2.46 2.19 2.11 1.97 1.53 1.00 0.77 0.65 0.45 0.40 0.35 0.33 0.41 0.56 0.68 0.83 0.95 1.08
0.24 0.52 0.62 0.49 0.35 0.21 0.18 0.29 0.42 0.52 0.55 0.51 0.61 0.81 0.91 1.43 1.44 1.10 1.00 0.94 1.17 1.26 1.16 1.11 1.42 1.75 1.70 2.11 2.35 2.37 2.02 1.50 0.83 0.50 0.51 0.49 0.50 0.61 0.76 0.72 0.96 1.09 1.49
0.15 0.16 0.14 0.11 0.09 0.13 0.16 0.38 0.61 0.92 0.85 0.71 0.63 0.63 0.78 1.16 1.58 1.56 1.29 1.07 1.12 1.64 1.76 1.58 1.60 1.90 1.77 1.92 2.56 3.09 2.82 1.95 1.37 1.10 1.16 1.09 1.06 1.06 1.06 1.40 1.93 2.33 2.58
0.03 0.14 0.15 0.15 0.17 0.26 0.31 0.41 0.55 0.54 0.43 0.28 0.31 0.43 0.55 1.13 1.71 1.52 1.77 1.90 1.76 1.56 1.65 2.00 2.21 2.17 2.53 2.30 3.01 2.75 2.49 2.75 2.84 2.80 2.27 2.31 2.07 1.67 2.04 2.57 2.38 2.46 2.69
0.09 0.16 0.18 0.17 0.21 0.34 0.38 0.43 0.76 0.84 0.87 0.89 1.03 1.18 1.25 1.49 1.95 2.10 2.15 2.76 2.66 2.43 2.04 2.42 3.23 3.73 3.69 4.19 4.16 3.74 3.67 3.24 2.94 3.43 2.83 2.73 3.36 2.71 2.20 2.15 2.52 2.64 2.43
0.13 0.18 0.15 0.28 0.45 0.75 0.99 1.16 1.33 1.56 1.63 1.61 1.60 1.62 1.76 1.94 2.41 2.81 2.96 2.87 3.40 3.45 3.16 2.98 3.43 4.30 4.72 4.57 3.96 4.17 4.30 3.93 3.22 4.34 4.41 3.42 2.85 2.71 3.17 3.07 2.23 2.13 2.19

GFSSE_prec_precacc_351.txt.gz
Total_Precipitation_Accumulation
0.55 0.19 0.20 0.32 0.26 0.16 0.13 0.09 0.06 0.05 0.09 0.08 0.08 0.05 0.05 0.05 0.07 0.05 0.13 0.18 0.13 0.15 0.11 0.05 0.05 0.09 0.14 0.18 0.25 0.33 0.28 0.37 0.55 0.83 0.68 0.58 0.39 0.37 0.42 0.52 0.73 1.05 1.40
0.78 0.48 0.49 0.37 0.19 0.16 0.22 0.15 0.09 0.07 0.10 0.07 0.03 0.01 0.01 0.01 0.03 0.06 0.19 0.25 0.24 0.18 0.16 0.08 0.08 0.10 0.16 0.16 0.16 0.18 0.19 0.15 0.19 0.47 0.77 1.00 0.79 0.59 0.74 0.73 0.66 0.86 1.13
1.59 1.10 1.61 1.35 0.68 0.31 0.28 0.24 0.09 0.08 0.06 0.05 0.02 0.01 0.02 0.03 0.02 0.04 0.04 0.13 0.16 0.12 0.11 0.08 0.09 0.12 0.13 0.13 0.15 0.14 0.07 0.05 0.11 0.24 0.57 0.97 0.89 1.16 0.78 0.63 0.60 0.81 0.96
1.56 1.61 1.47 2.34 1.47 1.00 0.75 0.82 0.87 0.41 0.29 0.09 0.07 0.10 0.12 0.09 0.08 0.10 0.07 0.11 0.09 0.10 0.11 0.12 0.14 0.16 0.16 0.13 0.13 0.10 0.04 0.03 0.03 0.12 0.42 1.57 1.48 1.34 1.15 0.82 0.82 0.94 1.09
1.09 1.01 1.32 2.12 1.59 1.06 1.15 1.15 1.68 2.01 1.89 1.04 0.46 0.42 0.39 0.31 0.20 0.12 0.11 0.11 0.12 0.16 0.16 0.12 0.18 0.19 0.08 0.05 0.09 0.11 0.01 0.03 0.07 0.22 1.21 1.27 0.99 1.75 2.06 1.26 1.08 0.96 1.21
2.08 1.53 1.80 2.17 1.34 0.75 1.13 1.46 1.53 2.18 3.37 4.19 4.09 2.55 1.36 0.89 0.47 0.41 0.30 0.27 0.27 0.33 0.40 0.44 0.45 0.37 0.04 0.02 0.01 0.03 0.01 0.05 0.22 0.43 1.35 0.76 1.14 1.34 1.41 1.35 0.89 0.92 1.21
4.59 4.05 3.70 4.01 5.13 2.85 2.57 1.76 1.36 1.47 2.52 4.90 5.29 3.92 2.58 1.93 1.72 1.18 0.69 0.52 0.56 0.53 0.43 0.44 0.27 0.20 0.04 0.02 0.02 0.06 0.05 0.06 0.22 0.47 1.01 0.68 1.35 1.28 1.17 1.07 0.99 0.88 0.89
6.63 8.76 9.08 7.75 8.11 7.64 4.86 3.04 1.99 1.42 1.26 1.68 2.39 2.00 2.09 2.35 1.80 1.66 1.47 0.93 0.63 0.46 0.42 0.30 0.15 0.10 0.07 0.04 0.04 0.11 0.08 0.06 0.18 0.64 1.31 0.91 1.16 1.29 0.91 0.79 0.66 0.67 0.65
5.54 7.05 10.73 9.55 7.17 5.94 6.78 5.98 3.58 2.63 1.74 1.50 1.48 1.79 1.43 2.21 1.72 1.29 1.44 1.68 0.83 0.46 0.64 0.51 0.37 0.58 0.23 0.25 0.23 0.22 0.14 0.13 0.25 0.48 1.04 0.67 0.90 1.46 1.15 0.81 0.67 0.61 0.60
2.60 3.37 3.98 4.09 3.32 2.93 3.65 4.61 4.44 3.05 2.55 2.21 1.49 1.61 1.74 1.69 1.62 1.49 1.57 1.81 1.40 0.63 0.57 0.56 0.76 0.60 0.62 0.42 0.26 0.32 0.35 0.35 0.21 0.61 0.70 0.47 0.74 1.20 1.24 0.87 0.79 0.75 0.64
2.30 1.64 1.69 1.30 0.90 0.88 1.34 2.08 2.81 2.59 2.65 2.61 2.12 1.37 2.09 2.24 1.39 1.70 1.94 1.72 1.18 0.69 0.63 0.64 0.67 0.68 0.66 0.71 0.70 0.68 0.52 0.26 0.35 0.46 0.54 0.40 0.64 0.70 1.06 1.32 1.06 0.86 0.86
0.95 0.78 0.51 0.41 0.33 0.31 0.32 0.49 0.83 1.58 2.31 2.35 2.90 1.67 1.56 2.44 1.43 1.51 1.91 1.39 1.18 0.78 0.57 0.59 0.57 0.59 0.62 0.51 0.63 0.56 0.30 0.22 0.34 0.60 0.48 0.41 0.59 0.61 0.98 1.18 0.91 1.03 1.02
0.32 0.22 0.28 0.50 0.51 0.25 0.28 0.31 0.43 0.82 1.59 1.62 2.61 2.27 1.00 1.45 1.75 1.84 2.24 1.41 1.01 0.96 0.79 0.71 0.43 0.37 0.36 0.40 0.45 0.49 0.57 0.57 0.62 0.60 0.48 0.31 0.61 0.79 1.00 0.76 0.66 0.81 0.98
0.16 0.16 0.12 0.18 0.27 0.29 0.31 0.35 0.48 0.76 1.12 1.12 1.41 2.47 1.27 1.17 1.36 1.59 1.67 1.26 0.67 0.61 0.58 0.63 0.47 0.42 0.42 0.53 0.54 0.57 0.74 1.06 1.15 1.33 0.68 0.43 0.63 1.24 1.03 0.84 0.66 0.59 0.77
0.08 0.16 0.20 0.21 0.39 0.49 0.49 0.45 0.42 1.03 1.20 1.09 1.07 1.39 1.32 1.22 1.06 1.41 1.19 1.47 0.83 0.59 0.49 0.53 0.43 0.38 0.37 0.40 0.33 0.41 0.56 0.89 1.54 1.35 0.98 0.64 0.65 0.91 1.24 1.22 0.93 0.64 0.67
0.10 0.19 0.28 0.29 0.47 0.37 0.53 0.72 0.84 1.00 1.20 1.10 1.00 1.12 1.11 1.26 1.19 1.35 1.25 1.19 1.12 1.11 0.60 0.55 0.52 0.32 0.36 0.42 0.46 0.38 0.42 0.47 0.68 0.71 0.63 0.62 0.97 1.20 1.53 1.77 1.72 1.32 0.84
0.22 0.25 0.42 0.65 0.57 0.34 0.37 0.49 0.84 1.28 1.13 1.04 1.03 1.11 1.19 1.27 1.38 1.46 1.49 1.34 1.26 1.74 1.18 0.73 0.71 0.67 0.49 0.37 0.41 0.44 0.49 0.36 0.33 0.36 0.43 0.41 0.57 1.02 1.13 1.34 1.68 1.79 1.60
0.07 0.19 0.43 0.61 0.60 0.68 0.55 0.64 0.70 1.01 1.31 1.08 0.90 1.06 1.40 1.45 1.49 1.58 1.83 1.55 1.71 1.50 1.12 0.87 1.00 0.95 0.79 0.44 0.43 0.42 0.50 0.48 0.40 0.35 0.28 0.29 0.29 0.30 0.60 1.04 1.34 1.66 1.88
0.02 0.19 0.62 0.82 0.83 0.86 0.82 0.89 1.23 1.28 1.38 1.19 1.56 1.71 1.90 1.69 1.64 1.56 1.56 1.68 2.19 2.25 1.82 1.58 1.41 1.34 1.05 0.80 0.50 0.36 0.40 0.40 0.30 0.31 0.22 0.19 0.23 0.31 0.43 0.66 1.03 1.59 1.94
0.03 0.26 0.74 0.92 1.16 1.32 1.19 1.12 1.00 1.08 1.04 1.00 0.99 1.20 1.60 1.59 1.54 1.76 1.77 1.40 1.69 2.02 1.88 1.77 1.54 1.44 1.36 1.27 1.04 0.93 0.81 0.73 0.59 0.48 0.39 0.33 0.33 0.38 0.45 0.50 0.69 0.94 1.42
0.10 0.40 0.74 0.90 1.20 1.16 0.66 0.54 0.58 0.60 0.51 0.67 0.71 0.98 1.28 1.58 1.44 1.25 1.12 1.09 1.22 1.29 1.38 1.76 2.27 2.46 2.19 2.11 1.97 1.53 1.00 0.77 0.65 0.45 0.40 0.35 0.33 0.41 0.56 0.68 0.83 0.95 1.08
0.24 0.52 0.62 0.49 0.35 0.21 0.18 0.29 0.43 0.52 0.55 0.51 0.61 0.81 0.91 1.43 1.44 1.10 1.00 0.94 1.17 1.26 1.16 1.11 1.42 1.75 1.70 2.11 2.35 2.37 2.02 1.50 0.83 0.50 0.51 0.49 0.50 0.61 0.76 0.72 0.96 1.09 1.49
0.15 0.16 0.14 0.11 0.09 0.13 0.16 0.39 0.62 0.92 0.85 0.71 0.63 0.63 0.78 1.16 1.58 1.56 1.29 1.07 1.12 1.64 1.76 1.58 1.60 1.90 1.77 1.92 2.56 3.09 2.83 1.95 1.37 1.10 1.16 1.09 1.06 1.06 1.06 1.40 1.93 2.33 2.58
0.03 0.14 0.15 0.15 0.17 0.26 0.31 0.41 0.55 0.54 0.43 0.28 0.31 0.43 0.55 1.13 1.71 1.52 1.77 1.90 1.76 1.56 1.65 2.00 2.21 2.17 2.53 2.30 3.01 2.75 2.49 2.76 2.85 2.81 2.27 2.31 2.07 1.67 2.04 2.57 2.38 2.46 2.69
0.09 0.16 0.18 0.17 0.21 0.34 0.38 0.43 0.76 0.84 0.87 0.89 1.03 1.18 1.25 1.49 1.95 2.10 2.15 2.76 2.66 2.43 2.04 2.42 3.23 3.73 3.69 4.19 4.16 3.74 3.67 3.25 2.94 3.45 2.84 2.73 3.36 2.71 2.20 2.15 2.52 2.64 2.43
0.13 0.18 0.15 0.28 0.45 0.75 0.99 1.16 1.33 1.56 1.63 1.61 1.60 1.62 1.76 1.94 2.41 2.81 2.96 2.87 3.40 3.45 3.16 2.98 3.43 4.30 4.72 4.57 3.96 4.17 4.31 3.95 3.23 4.36 4.42 3.42 2.86 2.71 3.17 3.07 2.23 2.13 2.19

GFSSE_prec_precacc_354.txt.gz
Total_Precipitation_Accumulation
0.55 0.19 0.20 0.32 0.26 0.16 0.13 0.09 0.06 0.05 0.09 0.08 0.08 0.05 0.05 0.05 0.07 0.05 0.13 0.18 0.13 0.15 0.11 0.05 0.05 0.09 0.14 0.18 0.25 0.33 0.28 0.37 0.55 0.83 0.68 0.58 0.39 0.38 0.43 0.53 0.73 1.05 1.40
0.78 0.48 0.49 0.37 0.19 0.16 0.22 0.15 0.09 0.07 0.10 0.07 0.03 0.01 0.01 0.01 0.03 0.06 0.19 0.25 0.24 0.18 0.16 0.08 0.08 0.10 0.16 0.16 0.16 0.18 0.19 0.15 0.19 0.47 0.77 1.00 0.79 0.59 0.75 0.73 0.66 0.86 1.13
1.59 1.10 1.61 1.35 0.68 0.31 0.28 0.24 0.09 0.08 0.06 0.05 0.02 0.01 0.02 0.03 0.02 0.04 0.04 0.13 0.16 0.12 0.11 0.08 0.09 0.12 0.13 0.13 0.15 0.14 0.07 0.05 0.11 0.24 0.57 0.97 0.89 1.16 0.78 0.63 0.60 0.81 0.96
1.56 1.61 1.47 2.34 1.47 1.00 0.75 0.82 0.87 0.41 0.29 0.09 0.07 0.10 0.12 0.09 0.08 0.10 0.07 0.11 0.09 0.10 0.11 0.12 0.14 0.16 0.16 0.13 0.13 0.10 0.04 0.03 0.03 0.12 0.42 1.57 1.48 1.34 1.15 0.82 0.82 0.94 1.09
1.09 1.01 1.32 2.12 1.59 1.06 1.15 1.15 1.68 2.01 1.89 1.04 0.46 0.42 0.39 0.31 0.20 0.12 0.11 0.11 0.12 0.16 0.16 0.12 0.18 0.19 0.08 0.05 0.09 0.11 0.01 0.03 0.07 0.22 1.21 1.27 0.99 1.75 2.06 1.26 1.08 0.96 1.21
2.08 1.53 1.80 2.17 1.34 0.75 1.13 1.46 1.53 2.18 3.37 4.19 4.09 2.55 1.36 0.89 0.47 0.41 0.30 0.27 0.27 0.33 0.40 0.44 0.45 0.37 0.04 0.02 0.01 0.03 0.01 0.05 0.22 0.43 1.35 0.76 1.14 1.34 1.41 1.35 0.89 0.92 1.21
4.59 4.05 3.70 4.01 5.13 2.85 2.57 1.76 1.36 1.47 2.52 4.90 5.29 3.92 2.58 1.93 1.72 1.18 0.69 0.52 0.56 0.53 0.43 0.44 0.27 0.20 0.04 0.02 0.02 0.06 0.05 0.06 0.22 0.47 1.01 0.68 1.35 1.28 1.17 1.07 0.99 0.88 0.89
6.63 8.76 9.08 7.75 8.11 7.64 4.86 3.04 1.99 1.42 1.26 1.68 2.39 2.00 2.09 2.35 1.80 1.66 1.47 0.93 0.63 0.46 0.42 0.30 0.15 0.10 0.07 0.04 0.04 0.11 0.08 0.06 0.18 0.64 1.31 0.91 1.16 1.29 0.91 0.79 0.66 0.67 0.65
5.54 7.05 10.73 9.55 7.17 5.94 6.78 5.98 3.58 2.63 1.74 1.50 1.48 1.79 1.43 2.21 1.72 1.29 1.44 1.68 0.83 0.46 0.64 0.51 0.37 0.58 0.23 0.25 0.23 0.22 0.14 0.13 0.25 0.48 1.04 0.67 0.90 1.46 1.15 0.81 0.67 0.61 0.60
2.60 3.37 3.98 4.09 3.32 2.93 3.65 4.61 4.44 3.05 2.55 2.21 1.49 1.61 1.74 1.69 1.62 1.49 1.57 1.81 1.40 0.63 0.57 0.56 0.76 0.60 0.62 0.42 0.26 0.32 0.35 0.35 0.21 0.61 0.70 0.47 0.74 1.20 1.25 0.87 0.79 0.75 0.64
2.30 1.64 1.69 1.30 0.90 0.88 1.34 2.08 2.81 2.59 2.65 2.61 2.12 1.37 2.09 2.24 1.39 1.70 1.94 1.72 1.18 0.69 0.63 0.64 0.67 0.68 0.66 0.71 0.70 0.68 0.52 0.26 0.35 0.46 0.54 0.40 0.64 0.71 1.08 1.33 1.06 0.86 0.86
0.95 0.78 0.51 0.41 0.33 0.31 0.32 0.49 0.83 1.58 2.31 2.35 2.90 1.67 1.56 2.44 1.43 1.51 1.91 1.39 1.18 0.78 0.57 0.59 0.57 0.59 0.62 0.51 0.63 0.56 0.30 0.22 0.34 0.60 0.48 0.41 0.59 0.61 0.98 1.18 0.91 1.03 1.02
0.32 0.22 0.28 0.50 0.51 0.25 0.28 0.31 0.43 0.82 1.59 1.62 2.61 2.27 1.00 1.45 1.75 1.84 2.24 1.41 1.01 0.96 0.79 0.71 0.43 0.37 0.36 0.40 0.45 0.49 0.57 0.57 0.62 0.60 0.48 0.31 0.61 0.79 1.00 0.76 0.66 0.81 0.98
0.16 0.16 0.12 0.18 0.27 0.29 0.31 0.35 0.48 0.76 1.12 1.12 1.41 2.47 1.27 1.17 1.36 1.59 1.67 1.26 0.67 0.61 0.58 0.63 0.47 0.42 0.42 0.53 0.54 0.57 0.74 1.06 1.15 1.33 0.68 0.43 0.63 1.24 1.03 0.84 0.66 0.59 0.77
0.08 0.16 0.20 0.21 0.39 0.49 0.49 0.45 0.42 1.03 1.20 1.09 1.07 1.39 1.32 1.22 1.06 1.41 1.19 1.47 0.83 0.59 0.49 0.53 0.43 0.38 0.37 0.40 0.33 0.41 0.56 0.89 1.54 1.35 0.98 0.64 0.65 0.91 1.24 1.22 0.93 0.64 0.67
0.10 0.19 0.28 0.29 0.47 0.37 0.53 0.72 0.84 1.00 1.20 1.10 1.00 1.12 1.11 1.26 1.19 1.35 1.25 1.19 1.12 1.11 0.60 0.55 0.52 0.32 0.36 0.42 0.46 0.38 0.42 0.47 0.68 0.71 0.63 0.62 0.97 1.20 1.53 1.77 1.72 1.32 0.84
0.22 0.25 0.42 0.65 0.57 0.34 0.37 0.49 0.84 1.28 1.13 1.05 1.03 1.11 1.19 1.27 1.38 1.46 1.49 1.34 1.26 1.74 1.18 0.73 0.71 0.67 0.49 0.37 0.41 0.44 0.49 0.36 0.33 0.36 0.43 0.41 0.57 1.02 1.13 1.34 1.68 1.79 1.60
0.07 0.19 0.43 0.61 0.60 0.68 0.55 0.64 0.70 1.01 1.31 1.08 0.90 1.06 1.40 1.45 1.49 1.58 1.83 1.55 1.71 1.50 1.12 0.87 1.00 0.95 0.79 0.44 0.43 0.42 0.50 0.48 0.40 0.35 0.28 0.29 0.29 0.30 0.60 1.04 1.34 1.66 1.88
0.02 0.19 0.62 0.82 0.83 0.86 0.82 0.89 1.23 1.28 1.38 1.19 1.56 1.71 1.90 1.69 1.64 1.56 1.56 1.68 2.19 2.25 1.82 1.58 1.41 1.34 1.05 0.80 0.50 0.36 0.40 0.40 0.30 0.31 0.22 0.19 0.23 0.31 0.43 0.66 1.03 1.59 1.94
0.03 0.26 0.74 0.92 1.16 1.32 1.19 1.12 1.00 1.08 1.05 1.00 0.99 1.20 1.60 1.59 1.54 1.76 1.77 1.40 1.69 2.02 1.88 1.77 1.54 1.44 1.36 1.27 1.04 0.93 0.81 0.73 0.59 0.48 0.39 0.33 0.33 0.38 0.45 0.50 0.69 0.94 1.42
0.10 0.40 0.74 0.90 1.20 1.16 0.66 0.54 0.59 0.62 0.52 0.67 0.71 0.98 1.28 1.58 1.44 1.25 1.12 1.09 1.22 1.29 1.38 1.76 2.27 2.46 2.19 2.11 1.97 1.53 1.00 0.77 0.65 0.45 0.40 0.35 0.33 0.41 0.56 0.68 0.83 0.95 1.08
0.24 0.52 0.62 0.49 0.35 0.21 0.18 0.30 0.44 0.52 0.55 0.51 0.61 0.81 0.91 1.43 1.44 1.10 1.00 0.94 1.17 1.26 1.16 1.11 1.42 1.75 1.70 2.11 2.35 2.37 2.02 1.50 0.83 0.50 0.51 0.49 0.50 0.61 0.76 0.72 0.96 1.09 1.49
0.15 0.16 0.14 0.11 0.09 0.13 0.16 0.39 0.62 0.92 0.85 0.71 0.63 0.63 0.78 1.16 1.58 1.56 1.29 1.07 1.12 1.64 1.76 1.58 1.60 1.90 1.77 1.92 2.56 3.09 2.83 1.95 1.37 1.10 1.16 1.09 1.06 1.06 1.06 1.40 1.93 2.33 2.58
0.03 0.14 0.15 0.15 0.17 0.26 0.31 0.41 0.55 0.54 0.43 0.28 0.31 0.43 0.55 1.13 1.71 1.52 1.77 1.90 1.76 1.56 1.65 2.00 2.21 2.17 2.53 2.30 3.01 2.75 2.49 2.76 2.86 2.81 2.27 2.31 2.07 1.67 2.04 2.57 2.38 2.46 2.69
0.09 0.16 0.18 0.17 0.21 0.34 0.38 0.43 0.76 0.84 0.87 0.89 1.03 1.18 1.25 1.49 1.95 2.10 2.15 2.76 2.66 2.43 2.04 2.42 3.23 3.73 3.69 4.20 4.16 3.74 3.67 3.25 2.94 3.46 2.86 2.73 3.36 2.71 2.20 2.15 2.52 2.64 2.43
0.13 0.18 0.15 0.28 0.45 0.75 0.99 1.16 1.33 1.56 1.63 1.61 1.60 1.62 1.76 1.94 2.41 2.81 2.96 2.87 3.40 3.45 3.16 2.98 3.43 4.30 4.73 4.57 3.96 4.17 4.32 3.96 3.24 4.37 4.45 3.43 2.86 2.71 3.17 3.07 2.23 2.13 2.19